M I D A S
Marine Information and Data Acquisition System
Tripno 740 of the Zeeleeuw from 2004-06-28 06:41:01 to 2004-06-28 13:31:46
Back to CruiseResearch ActivitiesStationsMapUnderway DataData graphs

EquipmentUnitsComment
TimeDGPSUTC
LatitudeDGPSDM.mWGS84
LongitudeDGPSDM.mWGS84
TemperatureSBE03/SBE38deg celciusITS90
ConductivitySBE21S/mITS90
SalinitySBE21 Practical Salinity Units
ChlorophylAChelsea fluorimeterg/lCalibrated in Aceton
Missing or incorrect values are displayed as -999
Sea surface data collected by the RV Zeeleeuw from 2004-06-28 06:41:01 to 2004-06-28 13:31:46
                                                                                    Next 1000 lines
Time Latitude Longitude Temperature Conductivity Salinity ChlorophylA
2004-06-28 06:41:09 51°13.597 2°56.096 21.028837 0.025442 0.127595 7.309007
2004-06-28 06:41:14 51°13.597 2°56.096 21.012723 0.025442 0.127595 7.342717
2004-06-28 06:41:19 51°13.597 2°56.096 21.012723 0.025442 0.127595 7.342717
2004-06-28 06:41:24 51°13.596 2°56.096 21.010569 0.025442 0.127597 7.309007
2004-06-28 06:41:29 51°13.596 2°56.096 20.99545 0.025442 0.127595 7.342717
2004-06-28 06:41:34 51°13.596 2°56.096 21.003469 0.025442 0.127598 7.376426
2004-06-28 06:41:38 51°13.596 2°56.095 20.968553 0.025442 0.1276 7.342717
2004-06-28 06:41:44 51°13.596 2°56.093 20.954262 0.025442 0.127602 7.342717
2004-06-28 06:41:49 51°13.597 2°56.09 20.954262 0.025442 0.127602 7.342717
2004-06-28 06:41:54 51°13.598 2°56.087 21.00662 0.025442 0.1276 7.342717
2004-06-28 06:41:59 51°13.599 2°56.082 20.994771 0.025546 0.128113 7.376426
2004-06-28 06:42:04 51°13.6 2°56.078 21.038048 0.025442 0.127603 7.376426
2004-06-28 06:42:09 51°13.602 2°56.073 20.99537 0.025442 0.127603 7.342717
2004-06-28 06:42:14 51°13.603 2°56.067 20.991579 0.025442 0.127603 7.376426
2004-06-28 06:42:20 51°13.606 2°56.06 20.991579 0.025442 0.127603 7.376426
2004-06-28 06:42:25 51°13.608 2°56.053 21.007298 0.025442 0.127605 7.309007
2004-06-28 06:42:29 51°13.609 2°56.047 20.994253 0.025442 0.127605 7.309007
2004-06-28 06:42:34 51°13.612 2°56.039 20.990263 0.025442 0.127605 7.309007
2004-06-28 06:42:40 51°13.614 2°56.03 21.016234 0.025442 0.127607 7.342717
2004-06-28 06:42:45 51°13.617 2°56.022 21.025527 0.025442 0.127607 7.376426
2004-06-28 06:42:49 51°13.619 2°56.015 21.025527 0.025442 0.127607 7.376426
2004-06-28 06:42:54 51°13.622 2°56.007 21.055152 0.025442 0.127608 7.342717
2004-06-28 06:43:00 51°13.625 2°55.996 21.036693 0.025442 0.12761 7.342717
2004-06-28 06:43:05 51°13.628 2°55.988 21.033104 0.025442 0.12761 7.376426
2004-06-28 06:43:09 51°13.631 2°55.981 21.023931 0.025442 0.12761 7.376426
2004-06-28 06:43:14 51°13.634 2°55.972 21.022496 0.025442 0.127612 7.342717
2004-06-28 06:43:20 51°13.637 2°55.962 21.022496 0.025442 0.127612 7.342717
2004-06-28 06:43:25 51°13.64 2°55.953 21.034619 0.025442 0.127612 7.342717
2004-06-28 06:43:30 51°13.643 2°55.944 21.023572 0.025442 0.127612 7.342717
2004-06-28 06:43:34 51°13.645 2°55.937 21.025566 0.025442 0.127613 7.342717
2004-06-28 06:43:39 51°13.647 2°55.927 21.026843 0.025442 0.127615 7.342717
2004-06-28 06:43:45 51°13.65 2°55.916 21.026843 0.025442 0.127615 7.342717
2004-06-28 06:43:49 51°13.652 2°55.908 21.001873 0.025442 0.127617 7.342717
2004-06-28 06:43:54 51°13.654 2°55.899 21.016234 0.025442 0.127617 7.342717
2004-06-28 06:43:59 51°13.656 2°55.889 21.022735 0.025442 0.127617 7.342717
2004-06-28 06:44:05 51°13.658 2°55.878 21.034539 0.025442 0.127617 7.309007
2004-06-28 06:44:10 51°13.659 2°55.868 21.016393 0.025442 0.127619 7.342717
2004-06-28 06:44:14 51°13.66 2°55.86 21.02441 0.025442 0.127619 7.309007
2004-06-28 06:44:19 51°13.661 2°55.85 21.02441 0.025442 0.127619 7.309007
2004-06-28 06:44:25 51°13.662 2°55.838 21.014 0.025442 0.12762 7.342717
2004-06-28 06:44:29 51°13.662 2°55.83 21.024769 0.025442 0.127622 7.376426
2004-06-28 06:44:34 51°13.663 2°55.82 21.080861 0.025442 0.127622 7.342717
2004-06-28 06:44:40 51°13.663 2°55.809 21.002711 0.025442 0.127622 7.376426
2004-06-28 06:44:45 51°13.663 2°55.802 21.062407 0.025442 0.127622 7.342717
2004-06-28 06:44:49 51°13.663 2°55.797 21.062407 0.025442 0.127622 7.342717
2004-06-28 06:44:54 51°13.663 2°55.793 21.059298 0.025442 0.127622 7.309007
2004-06-28 06:44:59 51°13.663 2°55.79 21.049372 0.025442 0.127624 7.342717
2004-06-28 06:45:04 51°13.663 2°55.788 21.097237 0.025442 0.127625 7.342717
2004-06-28 06:45:09 51°13.664 2°55.788 21.068466 0.025442 0.127624 7.342717
2004-06-28 06:45:14 51°13.664 2°55.789 21.085324 0.025442 0.127624 7.309007
2004-06-28 06:45:18 51°13.665 2°55.79 21.085324 0.025442 0.127624 7.309007
2004-06-28 06:45:24 51°13.666 2°55.792 21.116677 0.025442 0.127627 7.342717
2004-06-28 06:45:29 51°13.668 2°55.794 21.110145 0.025442 0.127627 7.376426
2004-06-28 06:45:34 51°13.671 2°55.796 21.128944 0.025442 0.127627 7.309007
2004-06-28 06:45:38 51°13.673 2°55.798 21.117792 0.025442 0.12763 7.342717
2004-06-28 06:45:43 51°13.676 2°55.8 21.071256 0.025442 0.12763 7.342717
2004-06-28 06:45:49 51°13.679 2°55.802 21.071256 0.025442 0.12763 7.342717
2004-06-28 06:45:54 51°13.681 2°55.803 20.994332 0.025442 0.127632 7.410136
2004-06-28 06:45:59 51°13.682 2°55.803 21.010569 0.025442 0.127632 7.376426
2004-06-28 06:46:04 51°13.682 2°55.804 21.028518 0.025442 0.127634 7.342717
2004-06-28 06:46:09 51°13.681 2°55.804 20.926591 0.025442 0.127635 7.342717
2004-06-28 06:46:14 51°13.68 2°55.805 21.058501 0.025442 0.127635 7.376426
2004-06-28 06:46:18 51°13.678 2°55.805 21.058501 0.025442 0.127635 7.376426
2004-06-28 06:46:25 51°13.676 2°55.805 21.104807 0.025442 0.127635 7.376426
2004-06-28 06:46:30 51°13.675 2°55.805 21.092576 0.025442 0.127635 7.309007
2004-06-28 06:46:34 51°13.675 2°55.806 21.15773 0.025442 0.127637 7.342717
2004-06-28 06:46:38 51°13.677 2°55.806 21.204767 0.025442 0.127635 7.207879
2004-06-28 06:46:45 51°13.681 2°55.805 21.221314 0.025442 0.127635 7.342717
2004-06-28 06:46:49 51°13.685 2°55.803 21.221314 0.025442 0.127635 7.342717
2004-06-28 06:46:54 51°13.69 2°55.799 21.203852 0.025442 0.127637 7.207879
2004-06-28 06:46:58 51°13.694 2°55.795 21.135753 0.025442 0.127637 7.376426
2004-06-28 06:47:04 51°13.7 2°55.788 21.060853 0.025442 0.12764 7.342717
2004-06-28 06:47:09 51°13.704 2°55.782 21.068028 0.025442 0.12764 7.376426
2004-06-28 06:47:14 51°13.71 2°55.774 21.06169 0.025442 0.127642 7.342717
2004-06-28 06:47:18 51°13.714 2°55.768 21.06169 0.025442 0.127642 7.342717
2004-06-28 06:47:24 51°13.721 2°55.758 21.03737 0.025442 0.127644 7.376426
2004-06-28 06:47:29 51°13.727 2°55.75 21.050568 0.025442 0.127644 7.376426
2004-06-28 06:47:34 51°13.733 2°55.741 21.042554 0.025442 0.127644 7.376426
2004-06-28 06:47:40 51°13.741 2°55.73 21.034779 0.025442 0.127644 7.376426
2004-06-28 06:47:44 51°13.747 2°55.722 21.025088 0.025442 0.127644 7.342717
2004-06-28 06:47:49 51°13.754 2°55.713 21.025088 0.025442 0.127644 7.342717
2004-06-28 06:47:54 51°13.761 2°55.703 21.025566 0.025442 0.127646 7.309007
2004-06-28 06:47:58 51°13.767 2°55.696 20.998761 0.025442 0.127644 7.342717
2004-06-28 06:48:04 51°13.776 2°55.685 21.02776 0.025442 0.127646 7.376426
2004-06-28 06:48:09 51°13.784 2°55.676 21.00654 0.025442 0.127647 7.309007
2004-06-28 06:48:14 51°13.793 2°55.667 21.016553 0.025442 0.127646 7.342717
2004-06-28 06:48:18 51°13.799 2°55.66 21.016553 0.025442 0.127646 7.342717
2004-06-28 06:48:24 51°13.81 2°55.65 21.018387 0.025442 0.127647 7.309007
2004-06-28 06:48:28 51°13.817 2°55.644 21.017071 0.025442 0.127647 7.342717
2004-06-28 06:48:34 51°13.828 2°55.634 21.017669 0.025442 0.127651 7.376426
2004-06-28 06:48:39 51°13.837 2°55.626 21.020262 0.025442 0.127649 7.342717
2004-06-28 06:48:44 51°13.846 2°55.618 21.034938 0.025442 0.127651 7.309007
2004-06-28 06:48:49 51°13.855 2°55.61 21.034938 0.025442 0.127651 7.309007
2004-06-28 06:48:54 51°13.865 2°55.603 21.020661 0.025442 0.127651 7.309007
2004-06-28 06:48:58 51°13.873 2°55.598 21.056787 0.025442 0.127651 7.342717
2004-06-28 06:49:04 51°13.884 2°55.589 21.053917 0.025442 0.127652 7.342717
2004-06-28 06:49:08 51°13.892 2°55.584 21.068506 0.025442 0.127652 7.342717
2004-06-28 06:49:14 51°13.904 2°55.576 21.043032 0.025442 0.127652 7.342717
2004-06-28 06:49:19 51°13.914 2°55.569 21.043032 0.025442 0.127652 7.342717
2004-06-28 06:49:24 51°13.923 2°55.562 21.028757 0.025442 0.127652 7.309007
2004-06-28 06:49:29 51°13.933 2°55.555 21.096759 0.025442 0.127654 7.342717
2004-06-28 06:49:34 51°13.944 2°55.548 21.041119 0.025442 0.127654 7.309007
2004-06-28 06:49:39 51°13.953 2°55.541 21.054475 0.025442 0.127656 7.376426
2004-06-28 06:49:44 51°13.963 2°55.534 21.034021 0.025442 0.127656 7.376426
2004-06-28 06:49:49 51°13.973 2°55.527 21.034021 0.025442 0.127656 7.376426
2004-06-28 06:49:54 51°13.984 2°55.519 21.029834 0.025442 0.127656 7.342717
2004-06-28 06:49:58 51°13.992 2°55.513 21.030871 0.025442 0.127656 7.376426
2004-06-28 06:50:04 51°14.005 2°55.504 21.017989 0.025442 0.127657 7.342717
2004-06-28 06:50:09 51°14.016 2°55.497 21.031668 0.025442 0.127659 7.376426
2004-06-28 06:50:13 51°14.025 2°55.49 21.037849 0.025442 0.127657 7.342717
2004-06-28 06:50:17 51°14.034 2°55.484 21.037849 0.025442 0.127657 7.342717
2004-06-28 06:50:24 51°14.049 2°55.474 21.027919 0.025442 0.127659 7.342717
2004-06-28 06:50:29 51°14.061 2°55.466 21.041796 0.025442 0.127659 7.309007
2004-06-28 06:50:34 51°14.072 2°55.459 21.07576 0.025442 0.127661 7.342717
2004-06-28 06:50:38 51°14.081 2°55.453 21.042634 0.025442 0.127661 7.376426
2004-06-28 06:50:44 51°14.095 2°55.444 21.066792 0.025442 0.127661 7.376426
2004-06-28 06:50:49 51°14.106 2°55.437 21.066792 0.025442 0.127661 7.376426
2004-06-28 06:50:54 51°14.118 2°55.429 21.022655 0.025442 0.127662 7.342717
2004-06-28 06:50:58 51°14.127 2°55.423 21.044229 0.025442 0.127662 7.342717
2004-06-28 06:51:04 51°14.142 2°55.413 21.060295 0.025442 0.127664 7.376426
2004-06-28 06:51:08 51°14.151 2°55.405 21.028199 0.025442 0.127664 7.376426
2004-06-28 06:51:13 51°14.163 2°55.396 21.070778 0.025442 0.127664 7.342717
2004-06-28 06:51:18 51°14.174 2°55.385 21.070778 0.025442 0.127664 7.342717
2004-06-28 06:51:24 51°14.188 2°55.372 21.070419 0.025442 0.127666 7.376426
2004-06-28 06:51:29 51°14.2 2°55.36 21.077991 0.025442 0.127667 7.376426
2004-06-28 06:51:34 51°14.211 2°55.347 21.078748 0.025442 0.127667 7.342717
2004-06-28 06:51:38 51°14.22 2°55.336 21.114367 0.025442 0.127666 7.309007
2004-06-28 06:51:42 51°14.229 2°55.324 21.090544 0.025442 0.127667 7.342717
2004-06-28 06:51:49 51°14.243 2°55.301 21.090544 0.025442 0.127667 7.342717
2004-06-28 06:51:53 51°14.251 2°55.288 21.038766 0.025442 0.127669 7.376426
2004-06-28 06:51:59 51°14.263 2°55.267 21.044468 0.025442 0.127671 7.309007
2004-06-28 06:52:04 51°14.272 2°55.249 21.051963 0.025442 0.127671 7.342717
2004-06-28 06:52:09 51°14.282 2°55.23 21.003548 0.025442 0.127671 7.342717
2004-06-28 06:52:14 51°14.292 2°55.212 20.996966 0.025442 0.127673 7.376426
2004-06-28 06:52:18 51°14.3 2°55.197 20.996966 0.025442 0.127673 7.376426
2004-06-28 06:52:24 51°14.312 2°55.175 21.028358 0.025442 0.127671 7.342717
2004-06-28 06:52:29 51°14.321 2°55.156 21.038128 0.025442 0.127673 7.342717
2004-06-28 06:52:34 51°14.331 2°55.137 21.019065 0.025442 0.127673 7.309007
2004-06-28 06:52:38 51°14.339 2°55.121 21.00295 0.025442 0.127674 7.376426
2004-06-28 06:52:44 51°14.351 2°55.097 21.029754 0.025442 0.127674 7.376426
2004-06-28 06:52:49 51°14.361 2°55.077 21.029754 0.025442 0.127674 7.376426
2004-06-28 06:52:52 51°14.367 2°55.066 20.962406 0.025442 0.127676 7.309007
2004-06-28 06:52:59 51°14.386 2°55.042 20.894075 0.025442 0.127676 7.376426
2004-06-28 06:53:04 51°14.4 2°55.027 20.959093 0.025442 0.127676 7.342717
2004-06-28 06:53:08 51°14.411 2°55.013 21.001634 0.025442 0.127676 7.309007
2004-06-28 06:53:14 51°14.429 2°54.995 21.01029 0.025442 0.127679 7.342717
2004-06-28 06:53:16 51°14.435 2°54.988 21.01029 0.025442 0.127679 7.342717
2004-06-28 06:53:24 51°14.46 2°54.964 20.964003 0.025442 0.127683 7.342717
2004-06-28 06:53:29 51°14.475 2°54.949 20.99545 0.025442 0.127681 7.309007
2004-06-28 06:53:34 51°14.491 2°54.934 21.013721 0.025442 0.127683 7.376426
2004-06-28 06:53:39 51°14.507 2°54.919 21.025766 0.025442 0.127684 7.376426
2004-06-28 06:53:44 51°14.522 2°54.904 21.07835 0.025442 0.127684 7.376426
2004-06-28 06:53:49 51°14.538 2°54.889 21.07835 0.025442 0.127684 7.376426
2004-06-28 06:53:54 51°14.554 2°54.874 21.050648 0.025442 0.127686 7.376426
2004-06-28 06:54:00 51°14.573 2°54.856 21.051405 0.025442 0.127686 7.342717
2004-06-28 06:54:04 51°14.585 2°54.844 20.96049 0.025442 0.127688 7.342717
2004-06-28 06:54:09 51°14.601 2°54.828 20.967196 0.025442 0.127689 7.376426
2004-06-28 06:54:14 51°14.616 2°54.813 20.984876 0.025442 0.127689 7.376426
2004-06-28 06:54:18 51°14.629 2°54.801 20.984876 0.025442 0.127689 7.376426
2004-06-28 06:54:24 51°14.648 2°54.782 21.019145 0.025442 0.127689 7.342717
2004-06-28 06:54:29 51°14.664 2°54.768 20.969471 0.025442 0.127689 7.376426
2004-06-28 06:54:33 51°14.676 2°54.756 21.018387 0.025442 0.127691 7.342717
2004-06-28 06:54:37 51°14.689 2°54.743 21.036174 0.025442 0.127691 7.376426
2004-06-28 06:54:44 51°14.711 2°54.722 21.036174 0.025442 0.127691 7.376426
2004-06-28 06:54:49 51°14.727 2°54.707 21.007977 0.025442 0.127695 7.342717
2004-06-28 06:54:52 51°14.736 2°54.698 21.036094 0.025442 0.127696 7.376426
2004-06-28 06:54:57 51°14.752 2°54.684 21.028597 0.025442 0.127695 7.275298
2004-06-28 06:55:05 51°14.778 2°54.66 21.017989 0.025442 0.127696 7.342717
2004-06-28 06:55:09 51°14.791 2°54.648 20.976376 0.025442 0.127698 7.342717
2004-06-28 06:55:14 51°14.807 2°54.633 20.959093 0.025442 0.127698 7.342717
2004-06-28 06:55:18 51°14.819 2°54.622 20.959093 0.025442 0.127698 7.342717
2004-06-28 06:55:25 51°14.842 2°54.601 20.979049 0.025442 0.1277 7.342717
2004-06-28 06:55:29 51°14.854 2°54.589 20.973103 0.025442 0.127701 7.342717
2004-06-28 06:55:33 51°14.867 2°54.578 20.946797 0.025442 0.127701 7.376426
2004-06-28 06:55:38 51°14.883 2°54.563 20.958654 0.025442 0.127701 7.342717
2004-06-28 06:55:45 51°14.905 2°54.542 20.970269 0.025442 0.127703 7.309007
2004-06-28 06:55:49 51°14.918 2°54.531 20.970269 0.025442 0.127703 7.309007
2004-06-28 06:55:54 51°14.934 2°54.516 21.021897 0.025442 0.127703 7.342717
2004-06-28 06:55:58 51°14.946 2°54.504 21.022256 0.025442 0.127703 7.376426
2004-06-28 06:56:02 51°14.959 2°54.492 21.001434 0.025442 0.127705 7.376426
2004-06-28 06:56:09 51°14.981 2°54.471 20.993455 0.025442 0.127706 7.342717
2004-06-28 06:56:14 51°14.997 2°54.456 20.981085 0.025442 0.127706 7.342717
2004-06-28 06:56:18 51°15.009 2°54.444 20.981085 0.025442 0.127706 7.342717
2004-06-28 06:56:25 51°15.031 2°54.423 20.958853 0.025442 0.127706 7.342717
2004-06-28 06:56:29 51°15.044 2°54.412 20.961208 0.025442 0.127708 7.376426
2004-06-28 06:56:34 51°15.06 2°54.397 20.964641 0.025442 0.127708 7.309007
2004-06-28 06:56:39 51°15.075 2°54.382 20.952546 0.025442 0.12771 7.376426
2004-06-28 06:56:45 51°15.095 2°54.364 20.954941 0.025442 0.12771 7.410136
2004-06-28 06:56:48 51°15.104 2°54.355 20.954941 0.025442 0.12771 7.410136
2004-06-28 06:56:54 51°15.123 2°54.337 20.952825 0.025442 0.12771 7.342717
2004-06-28 06:56:58 51°15.136 2°54.325 20.95015 0.025442 0.12771 7.309007
2004-06-28 06:57:04 51°15.155 2°54.307 21.012883 0.025442 0.127711 7.376426
2004-06-28 06:57:09 51°15.171 2°54.293 20.986592 0.025442 0.127711 7.342717
2004-06-28 06:57:14 51°15.187 2°54.278 20.965958 0.025442 0.127713 7.309007
2004-06-28 06:57:18 51°15.199 2°54.266 20.965958 0.025442 0.127713 7.309007
2004-06-28 06:57:22 51°15.212 2°54.254 20.96528 0.025442 0.127715 7.309007
2004-06-28 06:57:29 51°15.235 2°54.234 20.994771 0.025442 0.127713 7.342717
2004-06-28 06:57:34 51°15.251 2°54.219 20.95007 0.025442 0.127713 7.309007
2004-06-28 06:57:38 51°15.263 2°54.207 20.965519 0.025442 0.127715 7.342717
2004-06-28 06:57:45 51°15.285 2°54.186 20.975298 0.025442 0.127715 7.342717
2004-06-28 06:57:49 51°15.298 2°54.174 20.975298 0.025442 0.127715 7.342717
2004-06-28 06:57:51 51°15.304 2°54.168 20.985394 0.025442 0.127715 7.309007
2004-06-28 06:57:58 51°15.327 2°54.148 21.012205 0.025442 0.127717 7.342717
2004-06-28 06:58:05 51°15.349 2°54.128 21.006142 0.025442 0.127717 7.342717
2004-06-28 06:58:09 51°15.362 2°54.116 20.95526 0.025442 0.127717 7.309007
2004-06-28 06:58:14 51°15.378 2°54.101 20.975138 0.025442 0.127717 7.376426
2004-06-28 06:58:17 51°15.387 2°54.092 20.975138 0.025442 0.127717 7.376426
2004-06-28 06:58:25 51°15.412 2°54.068 20.951827 0.025442 0.127717 7.376426
2004-06-28 06:58:29 51°15.425 2°54.056 20.968952 0.025442 0.127717 7.342717
2004-06-28 06:58:35 51°15.444 2°54.038 20.989664 0.025442 0.127718 7.376426
2004-06-28 06:58:38 51°15.453 2°54.029 20.970708 0.025442 0.127718 7.342717
2004-06-28 06:58:45 51°15.476 2°54.008 20.992178 0.025442 0.127717 7.376426
2004-06-28 06:58:49 51°15.488 2°53.996 20.992178 0.025442 0.127717 7.376426
2004-06-28 06:58:54 51°15.504 2°53.981 20.971187 0.025442 0.127718 7.376426
2004-06-28 06:58:57 51°15.513 2°53.973 20.997883 0.025442 0.127717 7.376426
2004-06-28 06:59:05 51°15.539 2°53.948 20.961887 0.025442 0.127717 7.376426
2004-06-28 06:59:09 51°15.551 2°53.936 20.963244 0.025442 0.127717 7.376426
2004-06-28 06:59:14 51°15.567 2°53.921 20.992258 0.025442 0.127718 7.342717
2004-06-28 06:59:18 51°15.58 2°53.91 20.992258 0.025442 0.127718 7.342717
2004-06-28 06:59:25 51°15.602 2°53.888 20.962566 0.025442 0.127717 7.376426
2004-06-28 06:59:29 51°15.615 2°53.876 20.959931 0.025442 0.127718 7.309007
2004-06-28 06:59:34 51°15.631 2°53.861 20.956937 0.025442 0.127717 7.376426
2004-06-28 06:59:38 51°15.644 2°53.85 20.983758 0.025442 0.127718 7.309007
2004-06-28 06:59:45 51°15.666 2°53.829 20.958694 0.025442 0.127718 7.376426
2004-06-28 06:59:49 51°15.679 2°53.817 20.958694 0.025442 0.127718 7.376426
2004-06-28 06:59:54 51°15.695 2°53.802 20.956458 0.025442 0.127718 7.309007
2004-06-28 06:59:58 51°15.707 2°53.79 20.961089 0.025442 0.127718 7.342717
2004-06-28 07:00:05 51°15.729 2°53.769 20.956139 0.025442 0.127718 7.376426
2004-06-28 07:00:09 51°15.742 2°53.757 20.962566 0.025442 0.127718 7.309007
2004-06-28 07:00:14 51°15.758 2°53.742 20.951548 0.025442 0.127718 7.376426
2004-06-28 07:00:18 51°15.771 2°53.73 20.951548 0.025442 0.127718 7.376426
2004-06-28 07:00:25 51°15.793 2°53.71 20.98707 0.025442 0.127717 7.376426
2004-06-28 07:00:29 51°15.806 2°53.698 20.957177 0.025442 0.127717 7.342717
2004-06-28 07:00:33 51°15.819 2°53.686 20.979648 0.025442 0.127718 7.342717
2004-06-28 07:00:39 51°15.838 2°53.668 20.968513 0.025442 0.127717 7.376426
2004-06-28 07:00:44 51°15.854 2°53.654 20.962246 0.025442 0.127718 7.342717
2004-06-28 07:00:49 51°15.869 2°53.639 20.962246 0.025442 0.127718 7.342717
2004-06-28 07:00:54 51°15.885 2°53.624 20.96037 0.025442 0.127717 7.342717
2004-06-28 07:00:58 51°15.898 2°53.612 20.992936 0.025442 0.127715 7.342717
2004-06-28 07:01:05 51°15.92 2°53.593 20.984157 0.025442 0.127718 7.376426
2004-06-28 07:01:09 51°15.933 2°53.582 20.956737 0.025442 0.127715 7.376426
2004-06-28 07:01:14 51°15.949 2°53.569 20.966637 0.025442 0.127715 7.342717
2004-06-28 07:01:19 51°15.966 2°53.556 20.966637 0.025442 0.127715 7.342717
2004-06-28 07:01:24 51°15.983 2°53.545 20.963404 0.025442 0.127715 7.342717
2004-06-28 07:01:29 51°16 2°53.534 20.985993 0.025442 0.127715 7.376426
2004-06-28 07:01:34 51°16.018 2°53.523 20.99142 0.025442 0.127717 7.376426
2004-06-28 07:01:39 51°16.035 2°53.513 20.982801 0.025442 0.127717 7.342717
2004-06-28 07:01:44 51°16.053 2°53.503 20.959771 0.025442 0.127715 7.342717
2004-06-28 07:01:49 51°16.07 2°53.493 20.959771 0.025442 0.127715 7.342717
2004-06-28 07:01:54 51°16.088 2°53.483 20.973223 0.025442 0.127715 7.342717
2004-06-28 07:01:59 51°16.106 2°53.473 20.99521 0.025442 0.127717 7.342717
2004-06-28 07:02:04 51°16.123 2°53.463 20.973462 0.025442 0.127717 7.309007
2004-06-28 07:02:09 51°16.14 2°53.452 20.97857 0.025442 0.127715 7.342717
2004-06-28 07:02:14 51°16.158 2°53.44 20.965 0.025442 0.127715 7.309007
2004-06-28 07:02:18 51°16.172 2°53.431 20.965 0.025442 0.127715 7.309007
2004-06-28 07:02:23 51°16.188 2°53.419 20.977812 0.025442 0.127715 7.309007
2004-06-28 07:02:29 51°16.209 2°53.404 20.993455 0.025442 0.127717 7.309007
2004-06-28 07:02:34 51°16.226 2°53.392 20.986073 0.025442 0.127718 7.342717
2004-06-28 07:02:39 51°16.243 2°53.38 20.983319 0.025442 0.127717 7.342717
2004-06-28 07:02:43 51°16.257 2°53.37 20.981524 0.025442 0.127717 7.342717
2004-06-28 07:02:49 51°16.277 2°53.355 20.981524 0.025442 0.127717 7.342717
2004-06-28 07:02:54 51°16.294 2°53.344 20.97003 0.025442 0.127715 7.309007
2004-06-28 07:02:58 51°16.307 2°53.334 20.961727 0.025442 0.127717 7.342717
2004-06-28 07:03:05 51°16.331 2°53.317 20.963923 0.025442 0.127715 7.376426
2004-06-28 07:03:09 51°16.344 2°53.307 20.978052 0.025442 0.127717 7.342717
2004-06-28 07:03:14 51°16.361 2°53.295 20.967515 0.025442 0.127717 7.309007
2004-06-28 07:03:18 51°16.374 2°53.285 20.967515 0.025442 0.127717 7.309007
2004-06-28 07:03:24 51°16.395 2°53.271 20.967076 0.025442 0.127715 7.309007
2004-06-28 07:03:28 51°16.408 2°53.26 20.976455 0.025442 0.127717 7.342717
2004-06-28 07:03:34 51°16.428 2°53.246 20.967435 0.025442 0.127718 7.309007
2004-06-28 07:03:39 51°16.445 2°53.234 20.966916 0.025442 0.127717 7.376426
2004-06-28 07:03:41 51°16.452 2°53.229 20.975458 0.025442 0.127718 7.410136
2004-06-28 07:03:49 51°16.479 2°53.209 20.975458 0.025442 0.127718 7.410136
2004-06-28 07:03:54 51°16.495 2°53.196 20.969551 0.025442 0.127718 7.309007
2004-06-28 07:03:57 51°16.506 2°53.189 20.968393 0.025442 0.127718 7.309007
2004-06-28 07:04:05 51°16.532 2°53.169 20.980646 0.025442 0.127722 7.342717
2004-06-28 07:04:09 51°16.546 2°53.159 20.996846 0.025442 0.12772 7.342717
2004-06-28 07:04:14 51°16.563 2°53.147 20.973103 0.025442 0.127718 7.342717
2004-06-28 07:04:19 51°16.58 2°53.134 20.973103 0.025442 0.127718 7.342717
2004-06-28 07:04:25 51°16.6 2°53.12 20.972265 0.025442 0.127722 7.342717
2004-06-28 07:04:29 51°16.613 2°53.11 20.970189 0.025442 0.12772 7.376426
2004-06-28 07:04:34 51°16.629 2°53.099 20.963763 0.025442 0.127722 7.342717
2004-06-28 07:04:39 51°16.646 2°53.088 20.982561 0.025442 0.127723 7.342717
2004-06-28 07:04:44 51°16.662 2°53.076 20.968393 0.025442 0.127723 7.309007
2004-06-28 07:04:49 51°16.679 2°53.064 20.968393 0.025442 0.127723 7.309007
2004-06-28 07:04:54 51°16.695 2°53.051 20.980127 0.025442 0.127725 7.342717
2004-06-28 07:04:58 51°16.709 2°53.041 20.98715 0.025442 0.127727 7.342717
2004-06-28 07:05:04 51°16.728 2°53.026 20.971866 0.025442 0.127728 7.376426
2004-06-28 07:05:09 51°16.745 2°53.013 20.973821 0.025442 0.127727 7.342717
2004-06-28 07:05:14 51°16.762 2°53.001 20.97889 0.025442 0.127728 7.342717
2004-06-28 07:05:18 51°16.775 2°52.991 20.97889 0.025442 0.127728 7.342717
2004-06-28 07:05:24 51°16.795 2°52.976 20.985554 0.025442 0.127728 7.309007
2004-06-28 07:05:29 51°16.812 2°52.963 20.982322 0.025442 0.12773 7.309007
2004-06-28 07:05:34 51°16.828 2°52.95 21.00311 0.025442 0.127732 7.309007
2004-06-28 07:05:38 51°16.842 2°52.94 20.976974 0.025442 0.127732 7.376426
2004-06-28 07:05:44 51°16.861 2°52.925 20.978411 0.025442 0.127732 7.309007
2004-06-28 07:05:49 51°16.878 2°52.912 20.978411 0.025442 0.127732 7.309007
2004-06-28 07:05:54 51°16.894 2°52.899 20.995928 0.025442 0.127733 7.309007
2004-06-28 07:05:58 51°16.907 2°52.889 20.977293 0.025442 0.127733 7.376426
2004-06-28 07:06:04 51°16.928 2°52.874 20.983758 0.025442 0.127735 7.342717
2004-06-28 07:06:09 51°16.944 2°52.861 20.994771 0.025442 0.127735 7.376426
2004-06-28 07:06:14 51°16.961 2°52.848 20.977653 0.025442 0.127737 7.342717
2004-06-28 07:06:18 51°16.974 2°52.837 20.977653 0.025442 0.127737 7.342717
2004-06-28 07:06:22 51°16.988 2°52.828 20.976974 0.025442 0.127737 7.342717
2004-06-28 07:06:29 51°17.012 2°52.81 21.000716 0.025442 0.127738 7.342717
2004-06-28 07:06:33 51°17.025 2°52.8 20.993854 0.025442 0.127738 7.376426
2004-06-28 07:06:39 51°17.045 2°52.783 20.984596 0.025442 0.12774 7.342717
2004-06-28 07:06:45 51°17.065 2°52.768 20.991659 0.025442 0.12774 7.342717
2004-06-28 07:06:49 51°17.079 2°52.758 20.991659 0.025442 0.12774 7.342717
2004-06-28 07:06:54 51°17.096 2°52.745 20.973622 0.025442 0.127742 7.309007
2004-06-28 07:06:58 51°17.109 2°52.734 20.986232 0.025442 0.127742 7.342717
2004-06-28 07:07:05 51°17.133 2°52.715 20.990342 0.025442 0.127744 7.342717
2004-06-28 07:07:09 51°17.146 2°52.705 20.978131 0.025442 0.127744 7.342717
2004-06-28 07:07:14 51°17.163 2°52.692 20.98324 0.025442 0.127744 7.376426
2004-06-28 07:07:18 51°17.176 2°52.682 20.98324 0.025442 0.127744 7.376426
2004-06-28 07:07:25 51°17.2 2°52.665 20.981085 0.025442 0.127745 7.342717
2004-06-28 07:07:29 51°17.213 2°52.654 20.988826 0.025442 0.127749 7.342717
2004-06-28 07:07:34 51°17.23 2°52.642 20.994332 0.025442 0.127749 7.342717
2004-06-28 07:07:38 51°17.243 2°52.631 20.986352 0.025442 0.12775 7.309007
2004-06-28 07:07:44 51°17.264 2°52.616 20.997205 0.025442 0.12775 7.376426
2004-06-28 07:07:49 51°17.28 2°52.603 20.997205 0.025442 0.12775 7.376426
2004-06-28 07:07:54 51°17.297 2°52.59 20.98308 0.025442 0.12775 7.342717
2004-06-28 07:07:58 51°17.311 2°52.579 20.989345 0.025442 0.127752 7.342717
2004-06-28 07:08:02 51°17.324 2°52.569 20.980965 0.025442 0.127752 7.342717
2004-06-28 07:08:09 51°17.348 2°52.55 20.987908 0.025442 0.127754 7.309007
2004-06-28 07:08:13 51°17.361 2°52.54 20.997804 0.025442 0.127755 7.342717
2004-06-28 07:08:17 51°17.374 2°52.529 20.997804 0.025442 0.127755 7.342717
2004-06-28 07:08:25 51°17.401 2°52.507 20.986432 0.025442 0.127755 7.309007
2004-06-28 07:08:29 51°17.413 2°52.494 21.004626 0.025442 0.127757 7.309007
2004-06-28 07:08:35 51°17.431 2°52.475 20.992258 0.025442 0.127759 7.309007
2004-06-28 07:08:38 51°17.44 2°52.465 20.991021 0.025442 0.12776 7.309007
2004-06-28 07:08:45 51°17.46 2°52.439 20.993335 0.025442 0.127762 7.309007
2004-06-28 07:08:49 51°17.471 2°52.424 20.993335 0.025442 0.127762 7.309007
2004-06-28 07:08:54 51°17.484 2°52.404 20.983319 0.025442 0.127762 7.342717
2004-06-28 07:08:59 51°17.498 2°52.385 20.985315 0.025442 0.127764 7.342717
2004-06-28 07:09:03 51°17.508 2°52.369 20.998362 0.025442 0.127764 7.309007
2004-06-28 07:09:09 51°17.525 2°52.346 20.984796 0.025442 0.127764 7.309007
2004-06-28 07:09:14 51°17.538 2°52.326 20.999878 0.025442 0.127766 7.309007
2004-06-28 07:09:18 51°17.549 2°52.311 20.999878 0.025442 0.127766 7.309007
2004-06-28 07:09:22 51°17.559 2°52.294 20.988068 0.025442 0.127767 7.376426
2004-06-28 07:09:29 51°17.578 2°52.267 21.00315 0.025442 0.127767 7.410136
2004-06-28 07:09:33 51°17.588 2°52.25 20.99517 0.025442 0.127769 7.342717
2004-06-28 07:09:39 51°17.603 2°52.225 20.994412 0.025442 0.127771 7.342717
2004-06-28 07:09:45 51°17.618 2°52.2 20.988946 0.025442 0.127769 7.275298
2004-06-28 07:09:49 51°17.627 2°52.182 20.988946 0.025442 0.127769 7.275298
2004-06-28 07:09:54 51°17.639 2°52.161 20.995609 0.025442 0.127771 7.342717
2004-06-28 07:09:59 51°17.651 2°52.139 20.989345 0.025442 0.127771 7.376426
2004-06-28 07:10:05 51°17.665 2°52.113 20.988666 0.025442 0.127774 7.342717
2004-06-28 07:10:09 51°17.675 2°52.096 21.007458 0.025442 0.127772 7.342717
2004-06-28 07:10:14 51°17.687 2°52.074 20.991619 0.025442 0.127772 7.309007
2004-06-28 07:10:18 51°17.697 2°52.057 20.991619 0.025442 0.127772 7.309007
2004-06-28 07:10:25 51°17.713 2°52.027 21.000117 0.025442 0.127776 7.342717
2004-06-28 07:10:29 51°17.723 2°52.009 21.001514 0.025442 0.127776 7.342717
2004-06-28 07:10:34 51°17.735 2°51.987 20.997285 0.025442 0.127777 7.309007
2004-06-28 07:10:39 51°17.747 2°51.966 20.992417 0.025442 0.127777 7.342717
2004-06-28 07:10:45 51°17.761 2°51.94 20.993255 0.025442 0.127779 7.342717
2004-06-28 07:10:49 51°17.771 2°51.923 20.993255 0.025442 0.127779 7.342717
2004-06-28 07:10:54 51°17.783 2°51.901 21.005703 0.025442 0.127781 7.342717
2004-06-28 07:10:58 51°17.792 2°51.884 20.997285 0.025442 0.127781 7.342717
2004-06-28 07:11:05 51°17.809 2°51.854 20.996966 0.025442 0.127784 7.342717
2004-06-28 07:11:09 51°17.819 2°51.837 20.992856 0.025442 0.127783 7.342717
2004-06-28 07:11:14 51°17.831 2°51.816 21.001274 0.025442 0.127786 7.309007
2004-06-28 07:11:19 51°17.842 2°51.794 21.001274 0.025442 0.127786 7.309007
2004-06-28 07:11:23 51°17.852 2°51.777 20.994292 0.025442 0.127788 7.275298
2004-06-28 07:11:29 51°17.866 2°51.752 21.006142 0.025442 0.127788 7.342717
2004-06-28 07:11:34 51°17.878 2°51.731 21.004187 0.025442 0.127788 7.342717
2004-06-28 07:11:39 51°17.891 2°51.709 20.998282 0.025442 0.127791 7.376426
2004-06-28 07:11:45 51°17.905 2°51.684 21.01029 0.025442 0.127789 7.275298
2004-06-28 07:11:49 51°17.915 2°51.667 21.01029 0.025442 0.127789 7.275298
2004-06-28 07:11:54 51°17.927 2°51.646 21.00279 0.025442 0.127791 7.376426
2004-06-28 07:11:58 51°17.937 2°51.629 20.99912 0.025442 0.127791 7.241589
2004-06-28 07:12:05 51°17.954 2°51.599 21.000716 0.025442 0.127794 7.309007
2004-06-28 07:12:09 51°17.964 2°51.582 20.996766 0.025442 0.127796 7.309007
2004-06-28 07:12:14 51°17.976 2°51.561 21.004705 0.025442 0.127796 7.342717
2004-06-28 07:12:18 51°17.985 2°51.544 21.004705 0.025442 0.127796 7.342717
2004-06-28 07:12:25 51°18.002 2°51.515 20.998202 0.025442 0.127796 7.376426
2004-06-28 07:12:29 51°18.012 2°51.497 20.999599 0.025442 0.127799 7.376426
2004-06-28 07:12:34 51°18.024 2°51.476 21.004227 0.025442 0.127801 7.376426
2004-06-28 07:12:38 51°18.034 2°51.459 21.01049 0.025442 0.127799 7.275298
2004-06-28 07:12:45 51°18.051 2°51.429 21.002112 0.025442 0.127803 7.309007
2004-06-28 07:12:49 51°18.06 2°51.412 21.002112 0.025442 0.127803 7.309007
2004-06-28 07:12:54 51°18.072 2°51.39 21.002471 0.025442 0.127801 7.275298
2004-06-28 07:12:58 51°18.082 2°51.373 21.004785 0.025442 0.127805 7.342717
2004-06-28 07:13:03 51°18.093 2°51.351 21.005703 0.025442 0.127805 7.342717
2004-06-28 07:13:09 51°18.107 2°51.324 21.015396 0.025442 0.127806 7.309007
2004-06-28 07:13:13 51°18.116 2°51.306 21.011806 0.025442 0.127806 7.309007
2004-06-28 07:13:19 51°18.13 2°51.279 21.011806 0.025442 0.127806 7.309007
2004-06-28 07:13:25 51°18.144 2°51.253 21.008894 0.025442 0.127808 7.309007
2004-06-28 07:13:29 51°18.154 2°51.236 21.013481 0.025442 0.127808 7.309007
2004-06-28 07:13:34 51°18.165 2°51.214 21.022575 0.025442 0.12781 7.309007
2004-06-28 07:13:39 51°18.177 2°51.193 21.019345 0.025442 0.127813 7.309007
2004-06-28 07:13:45 51°18.19 2°51.167 21.016991 0.025442 0.127813 7.342717
2004-06-28 07:13:49 51°18.199 2°51.149 21.016991 0.025442 0.127813 7.342717
2004-06-28 07:13:53 51°18.208 2°51.131 21.011726 0.025442 0.127813 7.342717
2004-06-28 07:13:58 51°18.218 2°51.108 21.016632 0.025442 0.127815 7.342717
2004-06-28 07:14:05 51°18.234 2°51.075 21.006221 0.025442 0.127816 7.309007
2004-06-28 07:14:09 51°18.242 2°51.057 21.004107 0.025442 0.127818 7.309007
2004-06-28 07:14:15 51°18.255 2°51.03 21.005304 0.025442 0.12782 7.275298
2004-06-28 07:14:18 51°18.261 2°51.016 21.005304 0.025442 0.12782 7.275298
2004-06-28 07:14:25 51°18.276 2°50.984 21.014399 0.025442 0.12782 7.309007
2004-06-28 07:14:29 51°18.285 2°50.966 21.004785 0.025442 0.12782 7.309007
2004-06-28 07:14:34 51°18.296 2°50.943 21.007897 0.025442 0.127821 7.376426
2004-06-28 07:14:38 51°18.304 2°50.925 21.018427 0.025442 0.127823 7.342717
2004-06-28 07:14:45 51°18.32 2°50.892 21.006022 0.025442 0.127823 7.309007
2004-06-28 07:14:49 51°18.328 2°50.874 21.006022 0.025442 0.127823 7.309007
2004-06-28 07:14:54 51°18.339 2°50.851 21.012883 0.025442 0.127825 7.342717
2004-06-28 07:14:58 51°18.348 2°50.833 21.01759 0.025442 0.127825 7.309007
2004-06-28 07:15:02 51°18.357 2°50.815 21.007298 0.025442 0.127827 7.376426
2004-06-28 07:15:09 51°18.372 2°50.783 21.015755 0.025442 0.127828 7.342717
2004-06-28 07:15:13 51°18.381 2°50.764 21.009213 0.025442 0.12783 7.309007
2004-06-28 07:15:17 51°18.389 2°50.746 21.009213 0.025442 0.12783 7.309007
2004-06-28 07:15:25 51°18.407 2°50.709 21.010809 0.025442 0.127832 7.342717
2004-06-28 07:15:29 51°18.415 2°50.691 21.01037 0.025442 0.127832 7.342717
2004-06-28 07:15:34 51°18.426 2°50.668 21.020661 0.025442 0.127832 7.342717
2004-06-28 07:15:38 51°18.435 2°50.649 21.011208 0.025442 0.127835 7.342717
2004-06-28 07:15:45 51°18.45 2°50.617 21.0276 0.025442 0.127835 7.342717
2004-06-28 07:15:49 51°18.458 2°50.598 21.0276 0.025442 0.127835 7.342717
2004-06-28 07:15:54 51°18.469 2°50.575 21.014159 0.025442 0.127837 7.342717
2004-06-28 07:15:59 51°18.48 2°50.553 21.010968 0.025442 0.127838 7.309007
2004-06-28 07:16:03 51°18.489 2°50.534 21.026005 0.025442 0.127838 7.376426
2004-06-28 07:16:09 51°18.502 2°50.507 21.019424 0.025442 0.127838 7.376426
2004-06-28 07:16:14 51°18.513 2°50.484 21.014 0.025442 0.12784 7.309007
2004-06-28 07:16:18 51°18.521 2°50.466 21.014 0.025442 0.12784 7.309007
2004-06-28 07:16:22 51°18.53 2°50.448 21.020142 0.025442 0.127842 7.309007
2004-06-28 07:16:29 51°18.545 2°50.416 21.020422 0.025442 0.127843 7.309007
2004-06-28 07:16:33 51°18.554 2°50.397 21.02433 0.025442 0.127845 7.342717
2004-06-28 07:16:39 51°18.567 2°50.37 21.011567 0.025442 0.127845 7.309007
2004-06-28 07:16:45 51°18.579 2°50.343 21.01747 0.025442 0.127847 7.309007
2004-06-28 07:16:49 51°18.588 2°50.325 21.01747 0.025442 0.127847 7.309007
2004-06-28 07:16:54 51°18.599 2°50.302 21.026603 0.025442 0.127849 7.309007
2004-06-28 07:16:58 51°18.607 2°50.284 21.021738 0.025442 0.12785 7.342717
2004-06-28 07:17:05 51°18.622 2°50.252 21.023931 0.025442 0.12785 7.309007
2004-06-28 07:17:09 51°18.63 2°50.234 21.024769 0.025442 0.12785 7.309007
2004-06-28 07:17:14 51°18.641 2°50.211 21.026843 0.025442 0.127854 7.342717
2004-06-28 07:17:18 51°18.65 2°50.192 21.026843 0.025442 0.127854 7.342717
2004-06-28 07:17:25 51°18.665 2°50.161 21.015635 0.025442 0.127855 7.309007
2004-06-28 07:17:29 51°18.674 2°50.143 21.014159 0.025442 0.127854 7.342717
2004-06-28 07:17:34 51°18.684 2°50.12 21.026085 0.025442 0.127855 7.309007
2004-06-28 07:17:39 51°18.695 2°50.097 21.017669 0.025442 0.127859 7.309007
2004-06-28 07:17:45 51°18.707 2°50.07 21.027162 0.025442 0.127859 7.309007
2004-06-28 07:17:49 51°18.716 2°50.051 21.027162 0.025442 0.127859 7.309007
2004-06-28 07:17:54 51°18.726 2°50.028 21.028518 0.025442 0.12786 7.342717
2004-06-28 07:17:58 51°18.735 2°50.01 21.01739 0.025442 0.127862 7.309007
2004-06-28 07:18:05 51°18.75 2°49.978 21.019584 0.025442 0.127862 7.342717
2004-06-28 07:18:09 51°18.759 2°49.959 21.022496 0.025442 0.127866 7.342717
2004-06-28 07:18:14 51°18.769 2°49.936 21.025846 0.025442 0.127866 7.342717
2004-06-28 07:18:17 51°18.775 2°49.922 21.025846 0.025442 0.127866 7.342717
2004-06-28 07:18:25 51°18.792 2°49.886 21.026244 0.025442 0.127867 7.376426
2004-06-28 07:18:29 51°18.801 2°49.867 21.022336 0.025442 0.127867 7.309007
2004-06-28 07:18:35 51°18.814 2°49.84 21.021259 0.025442 0.127869 7.342717
2004-06-28 07:18:38 51°18.82 2°49.827 21.030512 0.025442 0.127869 7.309007
2004-06-28 07:18:45 51°18.835 2°49.795 21.026244 0.025442 0.127871 7.342717
2004-06-28 07:18:49 51°18.843 2°49.777 21.026244 0.025442 0.127871 7.342717
2004-06-28 07:18:54 51°18.854 2°49.754 21.030791 0.025442 0.127872 7.342717
2004-06-28 07:18:58 51°18.862 2°49.736 21.025606 0.025442 0.127872 7.342717
2004-06-28 07:19:02 51°18.87 2°49.718 21.021179 0.025442 0.127874 7.309007
2004-06-28 07:19:09 51°18.885 2°49.687 21.024569 0.025442 0.127876 7.342717
2004-06-28 07:19:13 51°18.894 2°49.669 21.033104 0.025442 0.127877 7.376426
2004-06-28 07:19:19 51°18.907 2°49.642 21.033104 0.025442 0.127877 7.376426
2004-06-28 07:19:25 51°18.92 2°49.616 21.033463 0.025442 0.127877 7.309007
2004-06-28 07:19:29 51°18.928 2°49.598 21.033941 0.025442 0.127879 7.275298
2004-06-28 07:19:34 51°18.938 2°49.575 21.025088 0.025442 0.127879 7.309007
2004-06-28 07:19:38 51°18.946 2°49.557 21.024609 0.025442 0.127881 7.342717
2004-06-28 07:19:45 51°18.961 2°49.526 21.028278 0.025442 0.127883 7.342717
2004-06-28 07:19:49 51°18.97 2°49.508 21.028278 0.025442 0.127883 7.342717
2004-06-28 07:19:54 51°18.98 2°49.486 21.034938 0.025442 0.127884 7.342717
2004-06-28 07:19:58 51°18.989 2°49.468 21.039444 0.025442 0.127884 7.342717
2004-06-28 07:20:05 51°19.003 2°49.436 21.026843 0.025442 0.127884 7.376426
2004-06-28 07:20:09 51°19.011 2°49.418 21.032027 0.025442 0.127886 7.342717
2004-06-28 07:20:14 51°19.022 2°49.396 21.02784 0.025442 0.127888 7.376426
2004-06-28 07:20:18 51°19.031 2°49.378 21.02784 0.025442 0.127888 7.376426
2004-06-28 07:20:25 51°19.046 2°49.346 21.033423 0.025442 0.127889 7.342717
2004-06-28 07:20:29 51°19.054 2°49.328 21.033702 0.025442 0.127891 7.309007
2004-06-28 07:20:33 51°19.062 2°49.309 21.027321 0.025442 0.127893 7.309007
2004-06-28 07:20:39 51°19.076 2°49.282 21.03761 0.025442 0.127891 7.342717
2004-06-28 07:20:45 51°19.088 2°49.255 21.030671 0.025442 0.127894 7.342717
2004-06-28 07:20:49 51°19.097 2°49.237 21.030671 0.025442 0.127894 7.342717
2004-06-28 07:20:54 51°19.108 2°49.214 21.031509 0.025442 0.127894 7.342717
2004-06-28 07:20:58 51°19.116 2°49.196 21.035696 0.025442 0.127896 7.376426
2004-06-28 07:21:05 51°19.131 2°49.164 21.029435 0.025442 0.127898 7.275298
2004-06-28 07:21:09 51°19.14 2°49.146 21.033183 0.025442 0.127899 7.376426
2004-06-28 07:21:14 51°19.151 2°49.123 21.039683 0.025442 0.127901 7.342717
2004-06-28 07:21:18 51°19.159 2°49.105 21.039683 0.025442 0.127901 7.342717
2004-06-28 07:21:25 51°19.174 2°49.074 21.043949 0.025442 0.127901 7.342717
2004-06-28 07:21:29 51°19.183 2°49.055 21.031588 0.025442 0.127903 7.309007
2004-06-28 07:21:34 51°19.194 2°49.033 21.032266 0.025442 0.127903 7.342717
2004-06-28 07:21:38 51°19.202 2°49.014 21.03103 0.025442 0.127906 7.342717
2004-06-28 07:21:45 51°19.217 2°48.983 21.033702 0.025442 0.127908 7.342717
2004-06-28 07:21:49 51°19.226 2°48.964 21.033702 0.025442 0.127908 7.342717
2004-06-28 07:21:54 51°19.236 2°48.941 21.039205 0.025442 0.127908 7.342717
2004-06-28 07:21:58 51°19.245 2°48.923 21.046701 0.025442 0.12791 7.342717
2004-06-28 07:22:05 51°19.259 2°48.89 21.045026 0.025442 0.127911 7.342717
2004-06-28 07:22:09 51°19.266 2°48.871 21.03745 0.025442 0.127913 7.309007
2004-06-28 07:22:15 51°19.278 2°48.841 21.034938 0.025442 0.127915 7.309007
2004-06-28 07:22:18 51°19.283 2°48.827 21.034938 0.025442 0.127915 7.309007
2004-06-28 07:22:25 51°19.295 2°48.792 21.035616 0.025442 0.127915 7.342717
2004-06-28 07:22:29 51°19.302 2°48.773 21.036932 0.025442 0.127916 7.342717
2004-06-28 07:22:34 51°19.311 2°48.748 21.039524 0.025442 0.127916 7.342717
2004-06-28 07:22:39 51°19.32 2°48.723 21.039683 0.025442 0.127918 7.309007
2004-06-28 07:22:45 51°19.33 2°48.694 21.038208 0.025442 0.12792 7.309007
2004-06-28 07:22:49 51°19.337 2°48.675 21.038208 0.025442 0.12792 7.309007
2004-06-28 07:22:54 51°19.346 2°48.65 21.03761 0.025442 0.127922 7.342717
2004-06-28 07:22:58 51°19.353 2°48.63 21.040042 0.025442 0.127923 7.309007
2004-06-28 07:23:05 51°19.365 2°48.596 21.038686 0.025442 0.127923 7.309007
2004-06-28 07:23:09 51°19.372 2°48.576 21.040042 0.025442 0.127925 7.342717
2004-06-28 07:23:14 51°19.381 2°48.551 21.041796 0.025442 0.127928 7.342717
2004-06-28 07:23:18 51°19.388 2°48.532 21.041796 0.025442 0.127928 7.342717
2004-06-28 07:23:25 51°19.401 2°48.498 21.041198 0.025442 0.127928 7.309007
2004-06-28 07:23:29 51°19.408 2°48.478 21.041198 0.025442 0.12793 7.342717
2004-06-28 07:23:33 51°19.415 2°48.459 21.052561 0.025442 0.127932 7.342717
2004-06-28 07:23:39 51°19.425 2°48.429 21.038965 0.025442 0.127932 7.309007
2004-06-28 07:23:45 51°19.436 2°48.4 21.046142 0.025442 0.127933 7.342717
2004-06-28 07:23:49 51°19.442 2°48.38 21.046142 0.025442 0.127933 7.342717
2004-06-28 07:23:54 51°19.45 2°48.355 21.044229 0.025442 0.127933 7.309007
2004-06-28 07:23:57 51°19.455 2°48.339 21.046222 0.025442 0.127935 7.309007
2004-06-28 07:24:05 51°19.467 2°48.299 21.044189 0.025442 0.127937 7.342717
2004-06-28 07:24:09 51°19.473 2°48.278 21.050129 0.025442 0.127939 7.309007
2004-06-28 07:24:14 51°19.481 2°48.253 21.051405 0.025442 0.127939 7.309007
2004-06-28 07:24:19 51°19.488 2°48.227 21.051405 0.025442 0.127939 7.309007
2004-06-28 07:24:25 51°19.497 2°48.197 21.045983 0.025442 0.127939 7.342717
2004-06-28 07:24:29 51°19.503 2°48.176 21.04064 0.025442 0.12794 7.342717
2004-06-28 07:24:34 51°19.51 2°48.151 21.048335 0.025442 0.127942 7.342717
2004-06-28 07:24:38 51°19.516 2°48.131 21.049611 0.025442 0.127942 7.342717
2004-06-28 07:24:44 51°19.525 2°48.1 21.0469 0.025442 0.127944 7.309007
2004-06-28 07:24:49 51°19.532 2°48.074 21.0469 0.025442 0.127944 7.309007
2004-06-28 07:24:54 51°19.54 2°48.049 21.045784 0.025442 0.127944 7.342717
2004-06-28 07:24:58 51°19.546 2°48.029 21.042793 0.025442 0.127947 7.376426
2004-06-28 07:25:05 51°19.556 2°47.993 21.045026 0.025442 0.127949 7.342717
2004-06-28 07:25:09 51°19.563 2°47.973 21.049531 0.025442 0.127947 7.342717
2004-06-28 07:25:13 51°19.568 2°47.952 21.044029 0.025442 0.127949 7.342717
2004-06-28 07:25:19 51°19.578 2°47.922 21.044029 0.025442 0.127949 7.342717
2004-06-28 07:25:25 51°19.587 2°47.891 21.048814 0.025442 0.12795 7.309007
2004-06-28 07:25:29 51°19.593 2°47.871 21.046541 0.025442 0.127952 7.309007
2004-06-28 07:25:34 51°19.6 2°47.845 21.05591 0.025442 0.127954 7.342717
2004-06-28 07:25:38 51°19.606 2°47.825 21.046302 0.025442 0.127956 7.342717
2004-06-28 07:25:44 51°19.615 2°47.794 21.047777 0.025442 0.127956 7.309007
2004-06-28 07:25:49 51°19.622 2°47.769 21.047777 0.025442 0.127956 7.309007
2004-06-28 07:25:53 51°19.628 2°47.748 21.056388 0.025442 0.127956 7.342717
2004-06-28 07:25:59 51°19.637 2°47.718 21.047458 0.025442 0.127957 7.342717
2004-06-28 07:26:04 51°19.645 2°47.692 21.051963 0.025442 0.127959 7.342717
2004-06-28 07:26:09 51°19.652 2°47.667 21.053478 0.025442 0.127961 7.342717
2004-06-28 07:26:14 51°19.66 2°47.641 21.047777 0.025442 0.127961 7.309007
2004-06-28 07:26:18 51°19.666 2°47.621 21.047777 0.025442 0.127961 7.309007
2004-06-28 07:26:24 51°19.676 2°47.591 21.050329 0.025442 0.127962 7.275298
2004-06-28 07:26:29 51°19.683 2°47.565 21.055232 0.025442 0.127964 7.342717
2004-06-28 07:26:33 51°19.689 2°47.545 21.055551 0.025442 0.127964 7.342717
2004-06-28 07:26:39 51°19.698 2°47.515 21.061012 0.025442 0.127966 7.342717
2004-06-28 07:26:45 51°19.707 2°47.485 21.053956 0.025442 0.127966 7.342717
2004-06-28 07:26:49 51°19.713 2°47.465 21.053956 0.025442 0.127966 7.342717
2004-06-28 07:26:54 51°19.721 2°47.44 21.058939 0.025442 0.127967 7.342717
2004-06-28 07:26:59 51°19.728 2°47.414 21.057544 0.025442 0.127969 7.376426
2004-06-28 07:27:03 51°19.734 2°47.393 21.051285 0.025442 0.127969 7.309007
2004-06-28 07:27:09 51°19.742 2°47.362 21.052202 0.025442 0.127973 7.309007
2004-06-28 07:27:14 51°19.748 2°47.337 21.05874 0.025339 0.127458 7.309007
2004-06-28 07:27:19 51°19.754 2°47.311 21.05874 0.025339 0.127458 7.309007
2004-06-28 07:27:25 51°19.762 2°47.279 21.060733 0.025339 0.127461 7.309007
2004-06-28 07:27:29 51°19.767 2°47.259 21.060175 0.025442 0.127976 7.309007
2004-06-28 07:27:34 51°19.773 2°47.233 21.052481 0.025442 0.127974 7.309007
2004-06-28 07:27:39 51°19.78 2°47.207 21.054794 0.025339 0.127461 7.342717
2004-06-28 07:27:45 51°19.787 2°47.176 21.055152 0.025442 0.127978 7.342717
2004-06-28 07:27:49 51°19.793 2°47.155 21.055152 0.025442 0.127978 7.342717
2004-06-28 07:27:54 51°19.799 2°47.129 21.057983 0.025442 0.127979 7.309007
2004-06-28 07:27:58 51°19.803 2°47.108 21.054833 0.025442 0.127981 7.309007
2004-06-28 07:28:05 51°19.812 2°47.071 21.05583 0.025339 0.127468 7.309007
2004-06-28 07:28:09 51°19.817 2°47.051 21.056787 0.025442 0.127983 7.342717
2004-06-28 07:28:14 51°19.823 2°47.025 21.060733 0.025442 0.127984 7.309007
2004-06-28 07:28:19 51°19.829 2°46.999 21.060733 0.025442 0.127984 7.309007
2004-06-28 07:28:23 51°19.834 2°46.978 21.060933 0.025442 0.127984 7.309007
2004-06-28 07:28:29 51°19.841 2°46.947 21.061849 0.025442 0.127986 7.309007
2004-06-28 07:28:34 51°19.847 2°46.921 21.059657 0.025442 0.127988 7.342717
2004-06-28 07:28:38 51°19.852 2°46.9 21.062128 0.025442 0.12799 7.309007
2004-06-28 07:28:45 51°19.861 2°46.863 21.057544 0.025339 0.127475 7.309007
2004-06-28 07:28:49 51°19.865 2°46.842 21.057544 0.025339 0.127475 7.309007
2004-06-28 07:28:54 51°19.871 2°46.816 21.058302 0.025442 0.127991 7.342717
2004-06-28 07:28:59 51°19.877 2°46.79 21.069263 0.025442 0.127991 7.309007
2004-06-28 07:29:04 51°19.883 2°46.764 21.062128 0.025442 0.127993 7.342717
2004-06-28 07:29:08 51°19.888 2°46.743 21.060175 0.025442 0.127995 7.342717
2004-06-28 07:29:14 51°19.896 2°46.711 21.057823 0.025442 0.127996 7.342717
2004-06-28 07:29:18 51°19.9 2°46.69 21.057823 0.025442 0.127996 7.342717
2004-06-28 07:29:24 51°19.908 2°46.658 21.060574 0.025442 0.127996 7.309007
2004-06-28 07:29:28 51°19.913 2°46.637 21.063524 0.025442 0.128 7.342717
2004-06-28 07:29:34 51°19.92 2°46.606 21.062168 0.025442 0.128 7.309007
2004-06-28 07:29:38 51°19.925 2°46.584 21.061132 0.025442 0.128001 7.376426
2004-06-28 07:29:44 51°19.932 2°46.553 21.05866 0.025339 0.127488 7.376426
2004-06-28 07:29:49 51°19.938 2°46.527 21.05866 0.025339 0.127488 7.376426
2004-06-28 07:29:54 51°19.944 2°46.501 21.062248 0.025442 0.128005 7.275298
2004-06-28 07:29:58 51°19.949 2°46.48 21.06464 0.025339 0.12749 7.342717
2004-06-28 07:30:04 51°19.956 2°46.449 21.069861 0.025442 0.128005 7.309007
2004-06-28 07:30:08 51°19.961 2°46.428 21.068028 0.025442 0.128008 7.342717
2004-06-28 07:30:14 51°19.968 2°46.396 21.069263 0.025442 0.128008 7.309007
2004-06-28 07:30:18 51°19.973 2°46.376 21.069263 0.025442 0.128008 7.309007
2004-06-28 07:30:24 51°19.98 2°46.344 21.068506 0.025442 0.12801 7.309007
2004-06-28 07:30:28 51°19.985 2°46.323 21.06157 0.025442 0.128012 7.309007
2004-06-28 07:30:34 51°19.992 2°46.291 21.062208 0.025442 0.128012 7.342717
2004-06-28 07:30:38 51°19.997 2°46.271 21.063563 0.025339 0.127498 7.309007
2004-06-28 07:30:44 51°20.004 2°46.239 21.065237 0.025442 0.128015 7.342717
2004-06-28 07:30:49 51°20.011 2°46.213 21.065237 0.025442 0.128015 7.342717
2004-06-28 07:30:53 51°20.016 2°46.192 21.066154 0.025442 0.128017 7.342717
2004-06-28 07:30:58 51°20.022 2°46.167 21.066593 0.025442 0.128017 7.309007
2004-06-28 07:31:05 51°20.03 2°46.13 21.068346 0.025339 0.127503 7.309007
2004-06-28 07:31:09 51°20.035 2°46.11 21.068028 0.025339 0.127505 7.309007
2004-06-28 07:31:14 51°20.041 2°46.084 21.072013 0.025339 0.127505 7.309007
2004-06-28 07:31:19 51°20.047 2°46.058 21.072013 0.025339 0.127505 7.309007
2004-06-28 07:31:25 51°20.055 2°46.027 21.068745 0.025442 0.128022 7.342717
2004-06-28 07:31:29 51°20.06 2°46.007 21.081937 0.025442 0.128024 7.342717
2004-06-28 07:31:30 51°20.061 2°46.002 21.069383 0.025339 0.12751 7.309007
2004-06-28 07:31:39 51°20.072 2°45.955 21.068267 0.025339 0.12751 7.309007
2004-06-28 07:31:45 51°20.08 2°45.925 21.073607 0.025339 0.127514 7.342717
2004-06-28 07:31:49 51°20.085 2°45.904 21.073607 0.025339 0.127514 7.342717
2004-06-28 07:31:53 51°20.09 2°45.884 21.071415 0.025339 0.127514 7.342717
2004-06-28 07:31:58 51°20.096 2°45.858 21.071774 0.025442 0.128032 7.342717
2004-06-28 07:32:05 51°20.105 2°45.822 21.079506 0.025442 0.12803 7.342717
2004-06-28 07:32:09 51°20.11 2°45.801 21.072093 0.025339 0.127517 7.275298
2004-06-28 07:32:14 51°20.116 2°45.775 21.071973 0.025339 0.127519 7.309007
2004-06-28 07:32:18 51°20.121 2°45.754 21.071973 0.025339 0.127519 7.309007
2004-06-28 07:32:24 51°20.129 2°45.723 21.077354 0.025339 0.12752 7.342717
2004-06-28 07:32:29 51°20.135 2°45.698 21.076357 0.025339 0.12752 7.342717
2004-06-28 07:32:34 51°20.142 2°45.672 21.079864 0.025442 0.128037 7.342717
2004-06-28 07:32:39 51°20.148 2°45.647 21.079267 0.025339 0.127524 7.309007
2004-06-28 07:32:43 51°20.152 2°45.626 21.072252 0.025339 0.127525 7.309007
2004-06-28 07:32:49 51°20.157 2°45.594 21.072252 0.025339 0.127525 7.309007
2004-06-28 07:32:54 51°20.161 2°45.567 21.071894 0.025339 0.127527 7.309007
2004-06-28 07:32:59 51°20.164 2°45.541 21.071575 0.025339 0.127529 7.309007
2004-06-28 07:33:04 51°20.167 2°45.514 21.075002 0.025339 0.127532 7.342717
2004-06-28 07:33:09 51°20.17 2°45.487 21.071097 0.025339 0.127534 7.376426
2004-06-28 07:33:14 51°20.173 2°45.461 21.071256 0.025442 0.128047 7.309007
2004-06-28 07:33:18 51°20.176 2°45.439 21.071256 0.025442 0.128047 7.309007
2004-06-28 07:33:25 51°20.179 2°45.401 21.072252 0.025339 0.127536 7.309007
2004-06-28 07:33:29 51°20.181 2°45.379 21.071854 0.025442 0.128051 7.342717
2004-06-28 07:33:34 51°20.184 2°45.352 21.07281 0.025442 0.128051 7.342717
2004-06-28 07:33:37 51°20.186 2°45.336 21.077912 0.025442 0.128053 7.342717
2004-06-28 07:33:44 51°20.19 2°45.298 21.077075 0.025339 0.127539 7.309007
2004-06-28 07:33:49 51°20.193 2°45.27 21.077075 0.025339 0.127539 7.309007
2004-06-28 07:33:54 51°20.196 2°45.244 21.07301 0.025442 0.128054 7.309007
2004-06-28 07:33:59 51°20.199 2°45.217 21.074524 0.025339 0.127542 7.342717
2004-06-28 07:34:03 51°20.202 2°45.195 21.076278 0.025339 0.127542 7.342717
2004-06-28 07:34:09 51°20.205 2°45.163 21.080861 0.025339 0.127542 7.309007
2004-06-28 07:34:14 51°20.209 2°45.136 21.076517 0.025339 0.127544 7.275298
2004-06-28 07:34:18 51°20.211 2°45.114 21.076517 0.025339 0.127544 7.275298
2004-06-28 07:34:24 51°20.215 2°45.082 21.084606 0.025339 0.127546 7.342717
2004-06-28 07:34:29 51°20.217 2°45.054 21.080183 0.025339 0.127547 7.342717
2004-06-28 07:34:34 51°20.22 2°45.027 21.078111 0.025339 0.127549 7.275298
2004-06-28 07:34:38 51°20.223 2°45.005 21.087993 0.025339 0.127549 7.342717
2004-06-28 07:34:44 51°20.227 2°44.973 21.086678 0.025339 0.127552 7.342717
2004-06-28 07:34:49 51°20.23 2°44.946 21.086678 0.025339 0.127552 7.342717
2004-06-28 07:34:54 51°20.233 2°44.919 21.082176 0.025339 0.127554 7.342717
2004-06-28 07:34:59 51°20.236 2°44.892 21.080781 0.025339 0.127554 7.309007
2004-06-28 07:35:04 51°20.239 2°44.865 21.077513 0.025339 0.127556 7.309007
2004-06-28 07:35:08 51°20.241 2°44.844 21.080781 0.025442 0.128071 7.309007
2004-06-28 07:35:14 51°20.245 2°44.811 21.088432 0.025339 0.127559 7.342717
2004-06-28 07:35:18 51°20.248 2°44.79 21.088432 0.025339 0.127559 7.342717
2004-06-28 07:35:24 51°20.252 2°44.757 21.082255 0.025339 0.127559 7.309007
2004-06-28 07:35:29 51°20.255 2°44.73 21.081578 0.025339 0.127563 7.342717
2004-06-28 07:35:34 51°20.258 2°44.703 21.079824 0.025339 0.127563 7.342717
2004-06-28 07:35:39 51°20.261 2°44.676 21.080024 0.025339 0.127564 7.275298
2004-06-28 07:35:44 51°20.264 2°44.648 21.081578 0.025339 0.127564 7.309007
2004-06-28 07:35:49 51°20.268 2°44.621 21.081578 0.025339 0.127564 7.309007
2004-06-28 07:35:54 51°20.271 2°44.594 21.085164 0.025339 0.127568 7.342717
2004-06-28 07:35:58 51°20.273 2°44.572 21.084327 0.025339 0.127568 7.342717
2004-06-28 07:36:05 51°20.278 2°44.534 21.082614 0.025339 0.127571 7.309007
2004-06-28 07:36:09 51°20.28 2°44.512 21.087675 0.025339 0.127573 7.342717
2004-06-28 07:36:14 51°20.283 2°44.485 21.089109 0.025339 0.127573 7.342717
2004-06-28 07:36:18 51°20.286 2°44.463 21.089109 0.025339 0.127573 7.342717
2004-06-28 07:36:25 51°20.291 2°44.425 21.088511 0.025339 0.127576 7.342717
2004-06-28 07:36:28 51°20.293 2°44.409 21.092576 0.025339 0.127578 7.342717
2004-06-28 07:36:34 51°20.297 2°44.376 21.089069 0.025339 0.127578 7.275298
2004-06-28 07:36:38 51°20.299 2°44.355 21.085523 0.025339 0.12758 7.342717
2004-06-28 07:36:44 51°20.303 2°44.322 21.086838 0.025339 0.127581 7.309007
2004-06-28 07:36:49 51°20.307 2°44.295 21.086838 0.025339 0.127581 7.309007
2004-06-28 07:36:54 51°20.31 2°44.267 21.08624 0.025339 0.127583 7.275298
2004-06-28 07:36:58 51°20.313 2°44.246 21.092496 0.025339 0.127585 7.309007
2004-06-28 07:37:04 51°20.317 2°44.213 21.091659 0.025339 0.127586 7.275298
2004-06-28 07:37:09 51°20.321 2°44.186 21.091022 0.025339 0.127588 7.342717
2004-06-28 07:37:14 51°20.324 2°44.159 21.085921 0.025339 0.127588 7.376426
2004-06-28 07:37:18 51°20.327 2°44.137 21.085921 0.025339 0.127588 7.376426
2004-06-28 07:37:24 51°20.331 2°44.104 21.091858 0.025339 0.127591 7.309007
2004-06-28 07:37:29 51°20.334 2°44.077 21.083331 0.025339 0.127591 7.275298
2004-06-28 07:37:34 51°20.337 2°44.05 21.087356 0.025339 0.127593 7.342717
2004-06-28 07:37:38 51°20.34 2°44.029 21.092337 0.025339 0.127595 7.275298
2004-06-28 07:37:45 51°20.345 2°43.991 21.096958 0.025339 0.127597 7.275298
2004-06-28 07:37:49 51°20.348 2°43.97 21.096958 0.025339 0.127597 7.275298
2004-06-28 07:37:55 51°20.352 2°43.938 21.092416 0.025339 0.127598 7.309007
2004-06-28 07:37:59 51°20.354 2°43.916 21.092934 0.025339 0.127598 7.342717
2004-06-28 07:38:03 51°20.357 2°43.895 21.101062 0.025339 0.1276 7.376426
2004-06-28 07:38:09 51°20.361 2°43.863 21.097237 0.025339 0.127602 7.309007
2004-06-28 07:38:14 51°20.364 2°43.836 21.095006 0.025339 0.127603 7.342717
2004-06-28 07:38:19 51°20.367 2°43.81 21.095006 0.025339 0.127603 7.342717
2004-06-28 07:38:23 51°20.37 2°43.788 21.097675 0.025339 0.127603 7.309007
2004-06-28 07:38:29 51°20.375 2°43.756 21.091261 0.025339 0.127608 7.342717
2004-06-28 07:38:33 51°20.377 2°43.734 21.103213 0.025339 0.127608 7.309007
2004-06-28 07:38:39 51°20.381 2°43.702 21.100385 0.025339 0.127612 7.309007
2004-06-28 07:38:45 51°20.385 2°43.67 21.091301 0.025339 0.127614 7.309007
2004-06-28 07:38:49 51°20.388 2°43.649 21.091301 0.025339 0.127614 7.309007
2004-06-28 07:38:55 51°20.392 2°43.617 21.094687 0.025339 0.127614 7.342717
2004-06-28 07:38:59 51°20.395 2°43.595 21.091141 0.025339 0.127615 7.342717
2004-06-28 07:39:05 51°20.399 2°43.563 21.098711 0.025339 0.127617 7.342717
2004-06-28 07:39:09 51°20.401 2°43.541 21.097636 0.025339 0.127619 7.275298
2004-06-28 07:39:15 51°20.406 2°43.508 21.095922 0.025339 0.127619 7.309007
2004-06-28 07:39:19 51°20.408 2°43.486 21.095922 0.025339 0.127619 7.309007
2004-06-28 07:39:25 51°20.412 2°43.454 21.100743 0.025442 0.128138 7.342717
2004-06-28 07:39:29 51°20.415 2°43.432 21.103651 0.025339 0.127624 7.309007
2004-06-28 07:39:35 51°20.419 2°43.399 21.096082 0.025339 0.127627 7.309007
2004-06-28 07:39:39 51°20.421 2°43.378 21.093731 0.025339 0.127627 7.309007
2004-06-28 07:39:45 51°20.426 2°43.345 21.09413 0.025339 0.127629 7.309007
2004-06-28 07:39:49 51°20.428 2°43.323 21.09413 0.025339 0.127629 7.309007
2004-06-28 07:39:53 51°20.431 2°43.302 21.09401 0.025339 0.127629 7.342717
2004-06-28 07:39:59 51°20.435 2°43.269 21.097795 0.025339 0.127631 7.309007
2004-06-28 07:40:05 51°20.439 2°43.237 21.097875 0.025339 0.127632 7.342717
2004-06-28 07:40:09 51°20.441 2°43.215 21.09915 0.025339 0.127636 7.275298
2004-06-28 07:40:15 51°20.446 2°43.182 21.101381 0.025339 0.127637 7.275298
2004-06-28 07:40:19 51°20.448 2°43.161 21.101381 0.025339 0.127637 7.275298
2004-06-28 07:40:25 51°20.452 2°43.128 21.099827 0.025339 0.127637 7.342717
2004-06-28 07:40:29 51°20.455 2°43.106 21.099747 0.025339 0.127639 7.309007
2004-06-28 07:40:35 51°20.459 2°43.073 21.108153 0.025339 0.127641 7.275298
2004-06-28 07:40:39 51°20.461 2°43.052 21.100305 0.025339 0.127641 7.309007
2004-06-28 07:40:45 51°20.465 2°43.019 21.097357 0.025339 0.127644 7.309007
2004-06-28 07:40:49 51°20.468 2°42.997 21.097357 0.025339 0.127644 7.309007
2004-06-28 07:40:55 51°20.472 2°42.964 21.09899 0.025339 0.127646 7.309007
2004-06-28 07:40:57 51°20.473 2°42.954 21.102894 0.025339 0.127646 7.275298
2004-06-28 07:41:05 51°20.478 2°42.91 21.108073 0.025339 0.127648 7.342717
2004-06-28 07:41:09 51°20.481 2°42.888 21.102735 0.025339 0.127651 7.342717
2004-06-28 07:41:15 51°20.485 2°42.855 21.105125 0.025339 0.127653 7.275298
2004-06-28 07:41:19 51°20.487 2°42.833 21.105125 0.025339 0.127653 7.275298
2004-06-28 07:41:25 51°20.491 2°42.801 21.099747 0.025339 0.127654 7.275298
2004-06-28 07:41:29 51°20.494 2°42.779 21.103811 0.025339 0.127654 7.342717
2004-06-28 07:41:35 51°20.498 2°42.746 21.110304 0.025339 0.127656 7.342717
2004-06-28 07:41:39 51°20.5 2°42.724 21.106798 0.025339 0.127659 7.275298
2004-06-28 07:41:45 51°20.503 2°42.692 21.107157 0.025339 0.127659 7.309007
2004-06-28 07:41:49 51°20.506 2°42.67 21.107157 0.025339 0.127659 7.309007
2004-06-28 07:41:55 51°20.51 2°42.638 21.106719 0.025339 0.127661 7.342717
2004-06-28 07:41:57 51°20.511 2°42.627 21.104886 0.025339 0.127661 7.309007
2004-06-28 07:42:05 51°20.516 2°42.584 21.111698 0.025339 0.127665 7.342717
2004-06-28 07:42:09 51°20.518 2°42.563 21.111379 0.025339 0.127665 7.309007
2004-06-28 07:42:15 51°20.522 2°42.531 21.101739 0.025339 0.127668 7.342717
2004-06-28 07:42:19 51°20.525 2°42.509 21.101739 0.025339 0.127668 7.342717
2004-06-28 07:42:25 51°20.529 2°42.477 21.11114 0.025339 0.12767 7.309007
2004-06-28 07:42:29 51°20.531 2°42.455 21.111459 0.025339 0.127671 7.309007
2004-06-28 07:42:35 51°20.535 2°42.423 21.10405 0.025339 0.127671 7.342717
2004-06-28 07:42:39 51°20.538 2°42.402 21.105325 0.025339 0.127675 7.342717
2004-06-28 07:42:45 51°20.541 2°42.369 21.107715 0.025339 0.127676 7.309007
2004-06-28 07:42:49 51°20.544 2°42.348 21.107715 0.025339 0.127676 7.309007
2004-06-28 07:42:55 51°20.547 2°42.315 21.102894 0.025339 0.127678 7.309007
2004-06-28 07:42:57 51°20.549 2°42.305 21.111061 0.025339 0.12768 7.309007
2004-06-28 07:43:05 51°20.553 2°42.261 21.107316 0.025339 0.127683 7.309007
2004-06-28 07:43:09 51°20.556 2°42.24 21.108233 0.025339 0.127683 7.342717
2004-06-28 07:43:15 51°20.559 2°42.207 21.110623 0.025339 0.127685 7.309007
2004-06-28 07:43:19 51°20.562 2°42.186 21.110623 0.025339 0.127685 7.309007
2004-06-28 07:43:25 51°20.565 2°42.154 21.10887 0.025339 0.127687 7.275298
2004-06-28 07:43:29 51°20.567 2°42.132 21.104886 0.025339 0.127688 7.342717
2004-06-28 07:43:35 51°20.57 2°42.1 21.113451 0.025339 0.12769 7.309007
2004-06-28 07:43:39 51°20.571 2°42.078 21.108312 0.025339 0.127692 7.342717
2004-06-28 07:43:45 51°20.575 2°42.046 21.116797 0.025339 0.127693 7.342717
2004-06-28 07:43:49 51°20.577 2°42.025 21.116797 0.025339 0.127693 7.342717
2004-06-28 07:43:54 51°20.579 2°41.998 21.112057 0.025339 0.127697 7.309007
2004-06-28 07:43:59 51°20.581 2°41.972 21.108392 0.025339 0.127697 7.309007
2004-06-28 07:44:05 51°20.583 2°41.94 21.110304 0.025339 0.127699 7.342717
2004-06-28 07:44:09 51°20.586 2°41.918 21.115721 0.025339 0.1277 7.275298
2004-06-28 07:44:15 51°20.588 2°41.886 21.116597 0.025339 0.127702 7.342717
2004-06-28 07:44:19 51°20.59 2°41.865 21.116597 0.025339 0.127702 7.342717
2004-06-28 07:44:23 51°20.592 2°41.843 21.118191 0.025339 0.127704 7.342717
2004-06-28 07:44:29 51°20.594 2°41.811 21.119784 0.025339 0.127707 7.342717
2004-06-28 07:44:35 51°20.597 2°41.778 21.112734 0.025339 0.127709 7.309007
2004-06-28 07:44:39 51°20.599 2°41.757 21.120102 0.025339 0.127709 7.275298
2004-06-28 07:44:45 51°20.601 2°41.724 21.113291 0.025339 0.127709 7.309007
2004-06-28 07:44:49 51°20.603 2°41.702 21.113291 0.025339 0.127709 7.309007
2004-06-28 07:44:55 51°20.606 2°41.67 21.11369 0.025339 0.127712 7.275298
2004-06-28 07:44:59 51°20.608 2°41.648 21.115442 0.025339 0.127716 7.342717
2004-06-28 07:45:05 51°20.611 2°41.616 21.114646 0.025339 0.127716 7.309007
2004-06-28 07:45:09 51°20.613 2°41.594 21.112893 0.025339 0.127719 7.309007
2004-06-28 07:45:15 51°20.616 2°41.562 21.124444 0.025339 0.127719 7.309007
2004-06-28 07:45:19 51°20.617 2°41.54 21.124444 0.025339 0.127719 7.309007
2004-06-28 07:45:25 51°20.62 2°41.508 21.114367 0.025339 0.127721 7.275298
2004-06-28 07:45:29 51°20.622 2°41.486 21.12062 0.025339 0.127724 7.342717
2004-06-28 07:45:35 51°20.625 2°41.454 21.120779 0.025339 0.127724 7.376426
2004-06-28 07:45:39 51°20.627 2°41.432 21.121536 0.025339 0.127727 7.309007
2004-06-28 07:45:45 51°20.629 2°41.4 21.121934 0.025339 0.127729 7.309007
2004-06-28 07:45:49 51°20.63 2°41.378 21.121934 0.025339 0.127729 7.309007
2004-06-28 07:45:54 51°20.633 2°41.351 21.11831 0.025339 0.127731 7.275298
2004-06-28 07:45:59 51°20.635 2°41.324 21.118868 0.025339 0.127731 7.275298
2004-06-28 07:46:05 51°20.638 2°41.291 21.115801 0.025339 0.127734 7.376426
2004-06-28 07:46:09 51°20.64 2°41.269 21.117354 0.025339 0.127736 7.342717
2004-06-28 07:46:15 51°20.643 2°41.237 21.124364 0.025339 0.127739 7.309007
2004-06-28 07:46:19 51°20.644 2°41.215 21.124364 0.025339 0.127739 7.309007
2004-06-28 07:46:25 51°20.647 2°41.183 21.12743 0.025339 0.127741 7.309007
2004-06-28 07:46:29 51°20.649 2°41.161 21.118549 0.025339 0.127743 7.309007
2004-06-28 07:46:35 51°20.652 2°41.128 21.119863 0.025339 0.127743 7.309007
2004-06-28 07:46:39 51°20.654 2°41.106 21.121098 0.025339 0.127746 7.342717
2004-06-28 07:46:45 51°20.656 2°41.073 21.119624 0.025339 0.12775 7.342717
2004-06-28 07:46:49 51°20.659 2°41.052 21.119624 0.025339 0.12775 7.342717
2004-06-28 07:46:55 51°20.662 2°41.019 21.121616 0.025339 0.12775 7.342717
2004-06-28 07:46:59 51°20.664 2°40.997 21.123767 0.025339 0.127751 7.342717
2004-06-28 07:47:03 51°20.665 2°40.975 21.128506 0.025339 0.127755 7.309007
2004-06-28 07:47:09 51°20.668 2°40.943 21.121098 0.025339 0.127756 7.275298
2004-06-28 07:47:15 51°20.671 2°40.91 21.122213 0.025339 0.127756 7.309007
2004-06-28 07:47:19 51°20.673 2°40.888 21.122213 0.025339 0.127756 7.309007
2004-06-28 07:47:25 51°20.676 2°40.855 21.121536 0.025339 0.12776 7.342717
2004-06-28 07:47:29 51°20.678 2°40.833 21.127191 0.025339 0.127761 7.342717
2004-06-28 07:47:35 51°20.681 2°40.801 21.123846 0.025339 0.127763 7.342717
2004-06-28 07:47:39 51°20.683 2°40.779 21.133842 0.025339 0.127767 7.342717
2004-06-28 07:47:45 51°20.685 2°40.746 21.123846 0.025339 0.12777 7.342717
2004-06-28 07:47:49 51°20.687 2°40.724 21.123846 0.025339 0.12777 7.342717
2004-06-28 07:47:55 51°20.69 2°40.691 21.133404 0.025339 0.12777 7.309007
2004-06-28 07:47:59 51°20.691 2°40.669 21.131253 0.025339 0.127773 7.275298
2004-06-28 07:48:05 51°20.694 2°40.636 21.124762 0.025339 0.127775 7.342717
2004-06-28 07:48:09 51°20.695 2°40.614 21.126037 0.025339 0.127777 7.275298
2004-06-28 07:48:14 51°20.697 2°40.587 21.129661 0.025339 0.12778 7.342717
2004-06-28 07:48:19 51°20.699 2°40.559 21.129661 0.025339 0.12778 7.342717
2004-06-28 07:48:25 51°20.702 2°40.527 21.136151 0.025339 0.127782 7.275298
2004-06-28 07:48:29 51°20.703 2°40.505 21.13643 0.025339 0.127784 7.309007
2004-06-28 07:48:35 51°20.706 2°40.472 21.13436 0.025339 0.127785 7.342717
2004-06-28 07:48:39 51°20.707 2°40.45 21.130935 0.025339 0.127785 7.309007
2004-06-28 07:48:45 51°20.71 2°40.417 21.128864 0.025339 0.127789 7.342717
2004-06-28 07:48:49 51°20.711 2°40.395 21.128864 0.025339 0.127789 7.342717
2004-06-28 07:48:54 51°20.713 2°40.368 21.125678 0.025339 0.12779 7.309007
2004-06-28 07:48:59 51°20.715 2°40.34 21.128267 0.025339 0.127792 7.342717
2004-06-28 07:49:05 51°20.717 2°40.308 21.129661 0.025339 0.127794 7.309007
2004-06-28 07:49:09 51°20.719 2°40.285 21.129103 0.025339 0.127799 7.309007
2004-06-28 07:49:15 51°20.721 2°40.253 21.135236 0.025339 0.127797 7.342717
2004-06-28 07:49:19 51°20.722 2°40.23 21.135236 0.025339 0.127797 7.342717
2004-06-28 07:49:25 51°20.725 2°40.198 21.128705 0.025339 0.127801 7.309007
2004-06-28 07:49:29 51°20.727 2°40.176 21.130417 0.025339 0.127802 7.342717
2004-06-28 07:49:33 51°20.729 2°40.154 21.133006 0.025339 0.127804 7.342717
2004-06-28 07:49:37 51°20.73 2°40.132 21.133921 0.025339 0.127808 7.309007
2004-06-28 07:49:45 51°20.733 2°40.088 21.129939 0.025339 0.127811 7.275298
2004-06-28 07:49:49 51°20.734 2°40.066 21.129939 0.025339 0.127811 7.275298
2004-06-28 07:49:53 51°20.736 2°40.044 21.133404 0.025339 0.127813 7.309007
2004-06-28 07:49:59 51°20.739 2°40.011 21.132169 0.025339 0.127814 7.309007
2004-06-28 07:50:03 51°20.74 2°39.989 21.141686 0.025339 0.127818 7.342717
2004-06-28 07:50:09 51°20.743 2°39.956 21.141726 0.025339 0.127818 7.342717
2004-06-28 07:50:15 51°20.745 2°39.923 21.138421 0.025339 0.127821 7.275298
2004-06-28 07:50:19 51°20.747 2°39.901 21.138421 0.025339 0.127821 7.275298
2004-06-28 07:50:25 51°20.749 2°39.867 21.132767 0.025339 0.127823 7.342717
2004-06-28 07:50:29 51°20.751 2°39.845 21.133006 0.025339 0.127825 7.342717
2004-06-28 07:50:35 51°20.753 2°39.813 21.141726 0.025339 0.12783 7.309007
2004-06-28 07:50:39 51°20.755 2°39.791 21.134678 0.025339 0.127823 7.309007
2004-06-28 07:50:45 51°20.758 2°39.758 21.130338 0.025339 0.127823 7.275298
2004-06-28 07:50:49 51°20.759 2°39.735 21.130338 0.025339 0.127823 7.275298
2004-06-28 07:50:54 51°20.762 2°39.708 21.125837 0.025339 0.127823 7.309007
2004-06-28 07:50:59 51°20.763 2°39.681 21.134678 0.025339 0.127828 7.309007
2004-06-28 07:51:05 51°20.766 2°39.648 21.131094 0.025339 0.127833 7.309007
2004-06-28 07:51:09 51°20.768 2°39.626 21.134519 0.025339 0.127842 7.342717
2004-06-28 07:51:15 51°20.77 2°39.593 21.131492 0.025339 0.127843 7.309007
2004-06-28 07:51:18 51°20.771 2°39.576 21.131492 0.025339 0.127843 7.309007
2004-06-28 07:51:25 51°20.774 2°39.537 21.13866 0.025339 0.127848 7.342717
2004-06-28 07:51:29 51°20.776 2°39.515 21.140173 0.025339 0.127852 7.275298
2004-06-28 07:51:33 51°20.778 2°39.493 21.134917 0.025339 0.127854 7.275298
2004-06-28 07:51:39 51°20.781 2°39.46 21.148654 0.025339 0.127855 7.275298
2004-06-28 07:51:45 51°20.783 2°39.427 21.139735 0.025339 0.127859 7.309007
2004-06-28 07:51:49 51°20.784 2°39.405 21.139735 0.025339 0.127859 7.309007
2004-06-28 07:51:54 51°20.786 2°39.378 21.135594 0.025339 0.12786 7.342717
2004-06-28 07:51:59 51°20.789 2°39.35 21.145628 0.025339 0.127864 7.309007
2004-06-28 07:52:05 51°20.791 2°39.317 21.14093 0.025339 0.127865 7.309007
2004-06-28 07:52:09 51°20.792 2°39.296 21.14507 0.025339 0.127869 7.309007
2004-06-28 07:52:14 51°20.795 2°39.268 21.142761 0.025339 0.127869 7.275298
2004-06-28 07:52:18 51°20.796 2°39.246 21.142761 0.025339 0.127869 7.275298
2004-06-28 07:52:25 51°20.799 2°39.208 21.140651 0.025339 0.127872 7.342717
2004-06-28 07:52:29 51°20.801 2°39.186 21.13874 0.025339 0.127874 7.275298
2004-06-28 07:52:35 51°20.803 2°39.153 21.142164 0.025339 0.127876 7.309007
2004-06-28 07:52:38 51°20.805 2°39.136 21.147499 0.025339 0.127879 7.342717
2004-06-28 07:52:45 51°20.808 2°39.098 21.140014 0.025339 0.127877 7.342717
2004-06-28 07:52:50 51°20.81 2°39.07 21.140014 0.025339 0.127877 7.342717
2004-06-28 07:52:54 51°20.811 2°39.048 21.143916 0.025339 0.127883 7.309007
2004-06-28 07:52:59 51°20.814 2°39.02 21.140332 0.025339 0.127884 7.275298
2004-06-28 07:53:05 51°20.816 2°38.987 21.146305 0.025339 0.127886 7.275298
2004-06-28 07:53:10 51°20.819 2°38.96 21.150047 0.025339 0.127889 7.342717
2004-06-28 07:53:15 51°20.821 2°38.932 21.148056 0.025339 0.127891 7.342717
2004-06-28 07:53:19 51°20.822 2°38.911 21.148056 0.025339 0.127891 7.342717
2004-06-28 07:53:25 51°20.825 2°38.878 21.142721 0.025339 0.127893 7.309007
2004-06-28 07:53:30 51°20.827 2°38.85 21.14523 0.025339 0.127895 7.309007
2004-06-28 07:53:35 51°20.829 2°38.823 21.154108 0.025339 0.127896 7.309007
2004-06-28 07:53:39 51°20.831 2°38.801 21.150724 0.025339 0.1279 7.275298
2004-06-28 07:53:44 51°20.833 2°38.773 21.152237 0.025339 0.1279 7.342717
2004-06-28 07:53:50 51°20.835 2°38.74 21.152237 0.025339 0.1279 7.342717
2004-06-28 07:53:54 51°20.837 2°38.718 21.14949 0.025339 0.127901 7.342717
2004-06-28 07:53:58 51°20.839 2°38.696 21.141845 0.025339 0.127905 7.309007
2004-06-28 07:54:03 51°20.841 2°38.669 21.155382 0.025339 0.127905 7.342717
2004-06-28 07:54:10 51°20.844 2°38.631 21.153033 0.025339 0.127908 7.309007
2004-06-28 07:54:15 51°20.846 2°38.603 21.148654 0.025339 0.12791 7.309007
2004-06-28 07:54:19 51°20.848 2°38.581 21.148654 0.025339 0.12791 7.309007
2004-06-28 07:54:25 51°20.85 2°38.549 21.150963 0.025339 0.127912 7.342717
2004-06-28 07:54:30 51°20.853 2°38.521 21.148056 0.025339 0.127912 7.309007
2004-06-28 07:54:35 51°20.855 2°38.494 21.148295 0.025339 0.127915 7.342717
2004-06-28 07:54:39 51°20.857 2°38.472 21.15156 0.025339 0.127917 7.309007
2004-06-28 07:54:45 51°20.86 2°38.439 21.150565 0.025339 0.127918 7.342717
2004-06-28 07:54:50 51°20.862 2°38.412 21.150565 0.025339 0.127918 7.342717
2004-06-28 07:54:55 51°20.864 2°38.384 21.150724 0.025339 0.127922 7.342717
2004-06-28 07:54:59 51°20.865 2°38.362 21.159203 0.025339 0.127924 7.342717
2004-06-28 07:55:05 51°20.868 2°38.33 21.158367 0.025339 0.127924 7.309007
2004-06-28 07:55:10 51°20.87 2°38.302 21.153391 0.025339 0.127929 7.342717
2004-06-28 07:55:15 51°20.872 2°38.274 21.160557 0.025339 0.127929 7.309007
2004-06-28 07:55:19 51°20.874 2°38.252 21.160557 0.025339 0.127929 7.309007
2004-06-28 07:55:25 51°20.877 2°38.22 21.15988 0.025339 0.12793 7.309007
2004-06-28 07:55:29 51°20.878 2°38.197 21.153033 0.025339 0.127932 7.309007
2004-06-28 07:55:35 51°20.881 2°38.164 21.153391 0.025339 0.127934 7.309007
2004-06-28 07:55:39 51°20.882 2°38.142 21.161034 0.025339 0.127937 7.309007
2004-06-28 07:55:45 51°20.885 2°38.109 21.159442 0.025339 0.127939 7.342717
2004-06-28 07:55:50 51°20.887 2°38.082 21.159442 0.025339 0.127939 7.342717
2004-06-28 07:55:54 51°20.889 2°38.06 21.154625 0.025339 0.127939 7.309007
2004-06-28 07:55:59 51°20.891 2°38.033 21.158566 0.025339 0.127941 7.275298
2004-06-28 07:56:05 51°20.893 2°38 21.162109 0.025339 0.127944 7.309007
2004-06-28 07:56:10 51°20.895 2°37.972 21.154983 0.025339 0.127944 7.342717
2004-06-28 07:56:15 51°20.897 2°37.945 21.158128 0.025339 0.127947 7.275298
2004-06-28 07:56:19 51°20.899 2°37.923 21.158128 0.025339 0.127947 7.275298
2004-06-28 07:56:25 51°20.901 2°37.89 21.158765 0.025339 0.127949 7.342717
2004-06-28 07:56:29 51°20.903 2°37.868 21.165691 0.025339 0.127953 7.309007
2004-06-28 07:56:35 51°20.905 2°37.835 21.157014 0.025339 0.127953 7.376426
2004-06-28 07:56:38 51°20.907 2°37.818 21.168756 0.025339 0.127954 7.342717
2004-06-28 07:56:45 51°20.91 2°37.78 21.157292 0.025339 0.127956 7.342717
2004-06-28 07:56:50 51°20.912 2°37.752 21.157292 0.025339 0.127956 7.342717
2004-06-28 07:56:54 51°20.914 2°37.73 21.15773 0.025339 0.127958 7.275298
2004-06-28 07:56:59 51°20.916 2°37.703 21.15988 0.025339 0.127961 7.275298
2004-06-28 07:57:05 51°20.918 2°37.67 21.167124 0.025339 0.127963 7.342717
2004-06-28 07:57:10 51°20.92 2°37.643 21.168836 0.025339 0.127963 7.342717
2004-06-28 07:57:15 51°20.922 2°37.615 21.169512 0.025339 0.127968 7.309007
2004-06-28 07:57:19 51°20.925 2°37.593 21.169512 0.025339 0.127968 7.309007
2004-06-28 07:57:25 51°20.927 2°37.561 21.169353 0.025339 0.127968 7.309007
2004-06-28 07:57:30 51°20.929 2°37.533 21.16187 0.025339 0.12797 7.309007
2004-06-28 07:57:35 51°20.931 2°37.506 21.165612 0.025339 0.127971 7.342717
2004-06-28 07:57:39 51°20.933 2°37.484 21.165612 0.025339 0.127973 7.309007
2004-06-28 07:57:45 51°20.935 2°37.451 21.161751 0.025339 0.127977 7.342717
2004-06-28 07:57:50 51°20.937 2°37.424 21.161751 0.025339 0.127977 7.342717
2004-06-28 07:57:55 51°20.939 2°37.397 21.162666 0.025339 0.127977 7.342717
2004-06-28 07:57:59 51°20.941 2°37.375 21.16394 0.025339 0.127982 7.342717
2004-06-28 07:58:05 51°20.943 2°37.342 21.17003 0.025339 0.127982 7.342717
2004-06-28 07:58:10 51°20.946 2°37.315 21.161552 0.025339 0.127982 7.275298
2004-06-28 07:58:15 51°20.947 2°37.288 21.16394 0.025339 0.127983 7.309007
2004-06-28 07:58:19 51°20.949 2°37.266 21.16394 0.025339 0.127983 7.309007
2004-06-28 07:58:25 51°20.952 2°37.233 21.174646 0.025339 0.127989 7.342717
2004-06-28 07:58:29 51°20.954 2°37.212 21.166129 0.025339 0.127989 7.309007
2004-06-28 07:58:35 51°20.956 2°37.179 21.167045 0.025339 0.12799 7.342717
2004-06-28 07:58:39 51°20.958 2°37.157 21.175005 0.025339 0.127992 7.309007
2004-06-28 07:58:45 51°20.96 2°37.125 21.175402 0.025339 0.127994 7.275298
2004-06-28 07:58:49 51°20.963 2°37.103 21.175402 0.025339 0.127994 7.275298
2004-06-28 07:58:55 51°20.965 2°37.071 21.168278 0.025339 0.127995 7.342717
2004-06-28 07:58:59 51°20.967 2°37.049 21.162189 0.025339 0.127997 7.342717
2004-06-28 07:59:05 51°20.969 2°37.017 21.171661 0.025339 0.127999 7.309007
2004-06-28 07:59:10 51°20.971 2°36.99 21.168199 0.025339 0.128001 7.342717
2004-06-28 07:59:15 51°20.973 2°36.962 21.164537 0.025339 0.128002 7.342717
2004-06-28 07:59:19 51°20.975 2°36.941 21.164537 0.025339 0.128002 7.342717
2004-06-28 07:59:25 51°20.978 2°36.908 21.169751 0.025339 0.128002 7.342717
2004-06-28 07:59:29 51°20.979 2°36.887 21.18165 0.025339 0.128007 7.275298
2004-06-28 07:59:35 51°20.981 2°36.855 21.171184 0.025339 0.128007 7.342717
2004-06-28 07:59:39 51°20.983 2°36.833 21.167124 0.025339 0.128009 7.342717
2004-06-28 07:59:43 51°20.984 2°36.812 21.165771 0.025339 0.128011 7.309007
2004-06-28 07:59:50 51°20.987 2°36.774 21.165771 0.025339 0.128011 7.309007
2004-06-28 07:59:54 51°20.989 2°36.752 21.180974 0.025339 0.128014 7.309007
2004-06-28 07:59:59 51°20.991 2°36.725 21.177193 0.025339 0.128016 7.309007
2004-06-28 08:00:05 51°20.992 2°36.693 21.168955 0.025339 0.128016 7.342717
2004-06-28 08:00:09 51°20.994 2°36.671 21.170666 0.025339 0.128018 7.309007
2004-06-28 08:00:15 51°20.997 2°36.639 21.181133 0.025339 0.128023 7.342717
2004-06-28 08:00:19 51°20.999 2°36.617 21.181133 0.025339 0.128023 7.342717
2004-06-28 08:00:25 51°21.001 2°36.584 21.174169 0.025339 0.128021 7.309007
2004-06-28 08:00:30 51°21.003 2°36.558 21.17194 0.025339 0.128023 7.342717
2004-06-28 08:00:34 51°21.005 2°36.536 21.179024 0.025339 0.128024 7.342717
2004-06-28 08:00:39 51°21.007 2°36.508 21.173333 0.025339 0.128026 7.342717
2004-06-28 08:00:45 51°21.01 2°36.476 21.179462 0.025339 0.12803 7.275298
2004-06-28 08:00:49 51°21.011 2°36.454 21.179462 0.025339 0.12803 7.275298
2004-06-28 08:00:55 51°21.014 2°36.421 21.174925 0.025339 0.12803 7.309007
2004-06-28 08:00:58 51°21.015 2°36.405 21.179661 0.025339 0.128033 7.309007
2004-06-28 08:01:05 51°21.018 2°36.367 21.174408 0.025339 0.128035 7.342717
2004-06-28 08:01:10 51°21.02 2°36.34 21.176397 0.025339 0.128033 7.309007
2004-06-28 08:01:13 51°21.021 2°36.323 21.180377 0.025339 0.128038 7.275298
2004-06-28 08:01:18 51°21.023 2°36.296 21.180377 0.025339 0.128038 7.275298
2004-06-28 08:01:25 51°21.026 2°36.258 21.182287 0.025339 0.12804 7.309007
2004-06-28 08:01:29 51°21.028 2°36.236 21.171661 0.025339 0.12804 7.309007
2004-06-28 08:01:34 51°21.03 2°36.209 21.180218 0.025339 0.128042 7.342717
2004-06-28 08:01:39 51°21.032 2°36.182 21.182566 0.025339 0.128045 7.309007
2004-06-28 08:01:45 51°21.034 2°36.149 21.184476 0.025339 0.128045 7.309007
2004-06-28 08:01:50 51°21.037 2°36.123 21.184476 0.025339 0.128045 7.309007
2004-06-28 08:01:55 51°21.039 2°36.095 21.180815 0.025339 0.128047 7.275298
2004-06-28 08:01:59 51°21.041 2°36.074 21.177591 0.025339 0.128048 7.309007
2004-06-28 08:02:05 51°21.043 2°36.041 21.182566 0.025339 0.128052 7.342717
2004-06-28 08:02:09 51°21.045 2°36.02 21.18945 0.025339 0.128054 7.309007
2004-06-28 08:02:14 51°21.048 2°35.993 21.187261 0.025339 0.128054 7.342717
2004-06-28 08:02:19 51°21.05 2°35.967 21.187261 0.025339 0.128054 7.342717
2004-06-28 08:02:25 51°21.053 2°35.934 21.183879 0.025339 0.128054 7.342717
2004-06-28 08:02:30 51°21.055 2°35.908 21.188614 0.025339 0.128057 7.275298
2004-06-28 08:02:34 51°21.057 2°35.886 21.182486 0.025339 0.128059 7.342717
2004-06-28 08:02:38 51°21.059 2°35.865 21.180735 0.025339 0.12806 7.342717
2004-06-28 08:02:43 51°21.061 2°35.838 21.180059 0.025339 0.128064 7.309007
2004-06-28 08:02:50 51°21.065 2°35.799 21.180059 0.025339 0.128064 7.309007
2004-06-28 08:02:55 51°21.067 2°35.772 21.186505 0.025339 0.128066 7.275298
2004-06-28 08:02:58 51°21.069 2°35.756 21.180656 0.025339 0.128067 7.342717
2004-06-28 08:03:05 51°21.072 2°35.718 21.184277 0.025339 0.128067 7.342717
2004-06-28 08:03:10 51°21.073 2°35.691 21.185272 0.025339 0.128072 7.309007
2004-06-28 08:03:15 51°21.076 2°35.663 21.190166 0.025339 0.128074 7.376426
2004-06-28 08:03:19 51°21.078 2°35.641 21.190166 0.025339 0.128074 7.376426
2004-06-28 08:03:25 51°21.081 2°35.609 21.182486 0.025339 0.128072 7.342717
2004-06-28 08:03:30 51°21.083 2°35.581 21.186425 0.025339 0.128076 7.342717
2004-06-28 08:03:33 51°21.084 2°35.565 21.183958 0.025339 0.128078 7.309007
2004-06-28 08:03:39 51°21.087 2°35.532 21.199436 0.025339 0.128079 7.342717
2004-06-28 08:03:45 51°21.09 2°35.499 21.182765 0.025339 0.128081 7.342717
2004-06-28 08:03:49 51°21.092 2°35.477 21.182765 0.025339 0.128081 7.342717
2004-06-28 08:03:55 51°21.094 2°35.444 21.195895 0.025339 0.128083 7.275298
2004-06-28 08:03:59 51°21.096 2°35.422 21.184317 0.025339 0.128084 7.309007
2004-06-28 08:04:03 51°21.098 2°35.4 21.190126 0.025339 0.128088 7.309007
2004-06-28 08:04:10 51°21.102 2°35.362 21.189211 0.025339 0.128088 7.275298
2004-06-28 08:04:14 51°21.104 2°35.34 21.200112 0.025339 0.128091 7.309007
2004-06-28 08:04:19 51°21.106 2°35.313 21.200112 0.025339 0.128091 7.309007